Bel Air, Maryland - USA |
Today's Data File |
5/10/26
Time Wind Dir Wind Spd Wind Gust Hum In Humidity Temp In Temp Raw Barom Wind Chill Press Alt Cloud Base Dens Alt Temp Out R DailyRain 24HrRain RainRate
� mph mph % % �F �F in �F ft ft ft �F/hr in in in/hr
12:00am 60 0 0 40 94 74.0 53.2 29.28 53.2 598 419 375 -1.28 0.00 0.00 0.000
12:01am 60 0 0 40 94 73.8 53.2 29.28 53.2 597 419 374 -1.26 0.00 0.00 0.000
12:02am 60 0 0 40 94 73.8 53.2 29.28 53.2 597 419 374 -1.24 0.00 0.00 0.000
12:03am 60 0 0 40 95 73.8 53.2 29.28 53.2 597 348 374 -1.23 0.00 0.00 0.000
12:04am 60 0 0 40 95 73.8 53.2 29.28 53.2 597 348 374 -1.21 0.00 0.00 0.000
12:05am 60 0 0 40 95 73.8 53.2 29.28 53.2 597 348 374 -1.18 0.00 0.00 0.000
12:06am 60 0 0 40 95 73.8 53.2 29.28 53.2 597 348 374 -1.17 0.00 0.00 0.000
12:07am 60 0 0 40 95 73.8 53.2 29.28 53.2 598 348 375 -1.15 0.00 0.00 0.000
12:08am 60 0 0 40 95 73.8 53.2 29.28 53.2 599 348 376 -1.13 0.00 0.00 0.000
12:09am 60 0 0 40 95 73.8 53.1 29.28 53.1 600 348 371 -1.21 0.00 0.00 0.000
12:10am 60 0 0 40 95 73.8 53.1 29.27 53.1 602 348 373 -1.19 0.00 0.00 0.000
12:11am 60 0 0 40 95 73.8 53.1 29.27 53.1 602 348 373 -1.17 0.00 0.00 0.000
12:12am 60 0 0 40 95 73.8 53.1 29.27 53.1 603 348 374 -1.15 0.00 0.00 0.000
12:13am 60 0 0 40 95 73.8 53.0 29.27 53.0 603 348 367 -1.23 0.00 0.00 0.000
12:14am 60 0 0 40 95 73.8 53.0 29.27 53.0 604 348 369 -1.21 0.00 0.00 0.000
12:15am 60 0 0 40 95 73.8 53.0 29.27 53.0 605 348 370 -1.19 0.00 0.00 0.000
12:16am 60 0 0 40 94 73.8 53.0 29.27 53.0 606 419 371 -1.17 0.00 0.00 0.000
12:17am 60 0 0 40 95 73.8 53.0 29.27 53.0 605 348 370 -1.15 0.00 0.00 0.000
12:18am 60 0 0 40 95 73.8 53.0 29.27 53.0 605 348 370 -1.13 0.00 0.00 0.000
12:19am 60 0 0 40 95 73.8 53.0 29.27 53.0 605 348 370 -1.11 0.00 0.00 0.000
12:20am 60 0 0 40 95 73.8 52.9 29.27 52.9 602 347 360 -1.19 0.00 0.00 0.000
12:21am 60 0 0 40 95 73.8 52.9 29.28 52.9 600 347 357 -1.17 0.00 0.00 0.000
12:22am 60 0 0 40 95 73.8 52.9 29.28 52.9 601 347 359 -1.15 0.00 0.00 0.000
12:23am 60 0 0 40 95 73.8 52.9 29.28 52.9 601 347 359 -1.13 0.00 0.00 0.000
12:24am 60 0 0 40 95 73.8 52.9 29.28 52.9 600 347 357 -1.11 0.00 0.00 0.000
12:25am 60 0 0 40 95 73.8 52.8 29.28 52.8 600 347 351 -1.19 0.00 0.00 0.000
12:26am 60 0 0 40 95 73.8 52.8 29.28 52.8 599 347 350 -1.17 0.00 0.00 0.000
12:27am 60 0 0 40 95 73.8 52.8 29.28 52.8 599 347 350 -1.16 0.00 0.00 0.000
12:28am 60 0 0 40 95 73.8 52.8 29.28 52.8 598 347 348 -1.14 0.00 0.00 0.000
12:29am 60 0 0 40 95 73.8 52.7 29.28 52.7 599 347 343 -1.22 0.00 0.00 0.000
12:30am 60 0 0 40 95 73.8 52.7 29.28 52.7 598 347 342 -1.20 0.00 0.00 0.000
12:31am 60 0 0 40 95 73.8 52.7 29.28 52.7 598 347 342 -1.18 0.00 0.00 0.000
12:32am 60 0 0 40 95 73.8 52.7 29.28 52.7 599 347 343 -1.16 0.00 0.00 0.000
12:33am 60 0 0 40 95 73.8 52.6 29.28 52.6 598 347 335 -1.24 0.00 0.00 0.000
12:34am 60 0 0 40 95 73.8 52.6 29.28 52.6 598 347 335 -1.22 0.00 0.00 0.000
12:35am 60 0 0 40 95 73.8 52.6 29.28 52.6 599 347 336 -1.20 0.00 0.00 0.000
12:36am 60 0 0 40 95 73.8 52.6 29.28 52.6 598 347 335 -1.18 0.00 0.00 0.000
12:37am 60 0 0 40 95 73.8 52.6 29.28 52.6 598 347 335 -1.16 0.00 0.00 0.000
12:38am 60 0 0 40 95 73.8 52.6 29.28 52.6 598 347 335 -1.14 0.00 0.00 0.000
12:39am 60 0 0 40 95 73.8 52.5 29.28 52.5 599 347 330 -1.22 0.00 0.00 0.000
12:40am 60 0 0 40 95 73.8 52.5 29.28 52.5 599 347 330 -1.20 0.00 0.00 0.000
12:41am 60 0 0 40 95 73.8 52.5 29.28 52.5 597 347 327 -1.18 0.00 0.00 0.000
12:42am 60 0 0 40 95 73.8 52.5 29.28 52.5 597 347 327 -1.16 0.00 0.00 0.000
12:43am 60 0 0 40 95 73.8 52.4 29.28 52.4 598 347 322 -1.24 0.00 0.00 0.000
12:44am 60 0 0 40 95 73.8 52.4 29.28 52.4 598 347 322 -1.22 0.00 0.00 0.000
12:45am 60 0 0 40 95 73.8 52.4 29.28 52.4 598 347 322 -1.20 0.00 0.00 0.000
12:46am 60 0 0 40 95 73.8 52.4 29.28 52.4 599 347 323 -1.18 0.00 0.00 0.000
12:47am 60 0 0 40 95 73.8 52.3 29.28 52.3 600 347 317 -1.26 0.00 0.00 0.000
12:48am 60 0 0 40 95 73.8 52.3 29.28 52.3 601 347 319 -1.24 0.00 0.00 0.000
12:49am 60 0 0 40 95 73.8 52.3 29.27 52.3 602 347 320 -1.22 0.00 0.00 0.000
12:50am 60 0 0 40 95 73.8 52.3 29.27 52.3 602 347 320 -1.20 0.00 0.00 0.000
12:51am 60 0 0 40 95 73.8 52.3 29.27 52.3 602 347 320 -1.18 0.00 0.00 0.000
12:52am 60 0 0 40 95 73.8 52.3 29.27 52.3 602 347 320 -1.16 0.00 0.00 0.000
12:53am 60 0 0 40 95 73.8 52.3 29.27 52.3 603 347 321 -1.14 0.00 0.00 0.000
12:54am 60 0 0 40 95 73.8 52.3 29.27 52.3 603 347 321 -1.12 0.00 0.00 0.000
12:55am 60 0 0 40 96 73.8 52.3 29.27 52.3 603 276 321 -1.10 0.00 0.00 0.000
12:56am 60 0 0 40 96 73.8 52.3 29.27 52.3 603 276 321 -1.08 0.00 0.00 0.000
12:57am 60 0 0 40 96 73.8 52.4 29.27 52.4 603 276 328 -0.97 0.00 0.00 0.000
12:58am 60 0 0 40 96 73.8 52.4 29.27 52.4 603 276 328 -0.95 0.00 0.00 0.000
12:59am 60 0 0 40 95 73.8 52.4 29.27 52.4 603 347 328 -0.93 0.00 0.00 0.000
1:00am 60 0 0 40 96 73.8 52.3 29.27 52.3 602 276 320 -1.02 0.00 0.00 0.000
1:01am 60 0 0 40 96 73.8 52.4 29.27 52.4 602 276 326 -0.90 0.00 0.00 0.000
1:02am 60 0 0 40 95 73.8 52.4 29.27 52.4 602 347 326 -0.89 0.00 0.00 0.000
1:03am 60 0 0 40 95 73.8 52.4 29.27 52.4 602 347 326 -0.87 0.00 0.00 0.000
1:04am 60 0 0 40 95 73.8 52.4 29.28 52.4 601 347 325 -0.86 0.00 0.00 0.000
1:05am 60 0 0 40 96 73.8 52.4 29.27 52.4 602 276 326 -0.84 0.00 0.00 0.000
1:06am 60 0 0 40 96 73.8 52.3 29.28 52.3 601 276 319 -0.93 0.00 0.00 0.000
1:07am 60 0 0 40 96 73.8 52.4 29.28 52.4 601 276 325 -0.81 0.00 0.00 0.000
1:08am 60 0 0 40 96 73.8 52.4 29.27 52.4 602 276 326 -0.80 0.00 0.00 0.000
1:09am 60 0 0 40 96 73.8 52.3 29.27 52.3 603 276 321 -0.88 0.00 0.00 0.000
1:10am 60 0 0 40 96 74.0 52.4 29.27 52.4 604 276 329 -0.77 0.00 0.00 0.000
1:11am 60 0 0 40 96 74.0 52.4 29.27 52.4 604 276 329 -0.76 0.00 0.00 0.000
1:12am 60 0 0 40 96 74.0 52.5 29.27 52.5 605 276 337 -0.64 0.00 0.00 0.000
1:13am 60 0 0 40 96 73.8 52.5 29.27 52.5 605 276 337 -0.63 0.00 0.00 0.000
1:14am 60 0 0 40 96 73.8 52.5 29.27 52.5 606 276 338 -0.62 0.00 0.00 0.000
1:15am 60 0 0 40 96 73.8 52.6 29.27 52.6 607 276 345 -0.51 0.00 0.00 0.000
1:16am 60 0 0 40 96 73.8 52.6 29.27 52.6 607 276 345 -0.51 0.00 0.00 0.000
1:17am 60 0 0 40 96 73.8 52.6 29.27 52.6 607 276 345 -0.50 0.00 0.00 0.000
1:18am 60 0 0 40 96 73.8 52.7 29.27 52.7 607 276 352 -0.39 0.00 0.00 0.000
1:19am 60 0 0 40 96 73.8 52.6 29.27 52.6 608 276 347 -0.48 0.00 0.00 0.000
1:20am 60 0 0 40 96 73.8 52.6 29.27 52.6 608 276 347 -0.48 0.00 0.00 0.000
1:21am 60 0 0 40 96 73.8 52.6 29.27 52.6 609 276 348 -0.47 0.00 0.00 0.000
1:22am 60 0 0 40 96 73.8 52.6 29.27 52.6 609 276 349 -0.46 0.00 0.00 0.000
1:23am 60 0 0 40 95 73.8 52.6 29.27 52.6 609 347 348 -0.45 0.00 0.00 0.000
1:24am 60 0 0 40 95 73.8 52.6 29.27 52.6 609 347 349 -0.45 0.00 0.00 0.000
1:25am 60 0 0 40 95 73.8 52.6 29.27 52.6 609 347 349 -0.44 0.00 0.00 0.000
1:26am 60 0 0 40 95 73.8 52.5 29.27 52.5 609 347 342 -0.53 0.00 0.00 0.000
1:27am 60 0 0 40 95 73.8 52.5 29.27 52.5 609 347 342 -0.52 0.00 0.00 0.000
1:28am 60 0 0 40 95 73.8 52.5 29.27 52.5 609 347 342 -0.51 0.00 0.00 0.000
1:29am 60 0 0 40 95 73.8 52.4 29.27 52.4 609 347 336 -0.60 0.00 0.00 0.000
1:30am 60 0 0 40 95 73.8 52.4 29.27 52.4 609 347 336 -0.59 0.00 0.00 0.000
1:31am 60 0 0 40 95 73.8 52.4 29.27 52.4 609 347 336 -0.58 0.00 0.00 0.000
1:32am 60 0 0 40 95 73.8 52.3 29.27 52.3 609 347 329 -0.67 0.00 0.00 0.000
1:33am 60 0 0 40 95 73.8 52.3 29.27 52.3 609 347 329 -0.66 0.00 0.00 0.000
1:34am 60 0 0 40 95 73.8 52.3 29.27 52.3 609 347 329 -0.65 0.00 0.00 0.000
1:35am 60 0 0 40 95 73.8 52.3 29.27 52.3 609 347 329 -0.64 0.00 0.00 0.000
1:36am 60 0 0 40 96 73.8 52.2 29.27 52.2 609 276 322 -0.73 0.00 0.00 0.000
1:37am 60 0 0 40 96 73.8 52.2 29.27 52.2 609 276 322 -0.71 0.00 0.00 0.000
1:38am 60 0 0 40 96 74.0 52.2 29.27 52.2 609 276 322 -0.70 0.00 0.00 0.000
1:39am 60 0 0 40 96 74.0 52.1 29.27 52.1 609 276 316 -0.79 0.00 0.00 0.000
1:40am 60 0 0 40 96 74.0 52.1 29.27 52.1 609 276 316 -0.78 0.00 0.00 0.000
1:41am 60 0 0 40 96 74.0 52.1 29.27 52.1 610 276 317 -0.77 0.00 0.00 0.000
1:42am 60 0 0 40 96 74.0 52.1 29.27 52.1 609 276 316 -0.75 0.00 0.00 0.000
1:43am 60 0 0 40 95 74.0 52.1 29.27 52.1 609 346 316 -0.74 0.00 0.00 0.000
1:44am 60 0 0 40 95 74.0 52.0 29.27 52.0 610 346 310 -0.83 0.00 0.00 0.000
1:45am 60 0 0 40 95 74.0 52.0 29.27 52.0 609 346 309 -0.82 0.00 0.00 0.000
1:46am 60 0 0 40 95 74.0 52.0 29.27 52.0 609 346 309 -0.80 0.00 0.00 0.000
1:47am 60 0 0 40 96 73.8 52.0 29.27 52.0 609 275 309 -0.79 0.00 0.00 0.000
1:48am 60 0 0 40 96 73.8 52.0 29.27 52.0 609 275 309 -0.78 0.00 0.00 0.000
1:49am 60 0 0 40 96 73.8 52.0 29.27 52.0 609 275 309 -0.76 0.00 0.00 0.000
1:50am 60 0 0 40 95 73.8 51.9 29.27 51.9 609 346 301 -0.85 0.00 0.00 0.000
1:51am 60 0 0 40 95 73.8 51.9 29.27 51.9 609 346 302 -0.84 0.00 0.00 0.000
1:52am 60 0 0 40 95 73.8 51.9 29.27 51.9 609 346 302 -0.82 0.00 0.00 0.000
1:53am 60 0 0 40 95 73.8 51.8 29.27 51.8 609 346 296 -0.90 0.00 0.00 0.000
1:54am 60 0 0 40 95 73.8 51.9 29.27 51.9 609 346 302 -0.79 0.00 0.00 0.000
1:55am 60 0 0 40 95 74.0 51.8 29.27 51.8 609 346 296 -0.88 0.00 0.00 0.000
1:56am 60 0 0 40 96 74.0 51.8 29.27 51.8 609 275 296 -0.86 0.00 0.00 0.000
1:57am 60 0 0 40 96 74.0 51.7 29.27 51.7 609 275 289 -0.95 0.00 0.00 0.000
1:58am 60 0 0 40 96 74.0 51.7 29.27 51.7 609 275 289 -0.93 0.00 0.00 0.000
1:59am 60 0 0 40 96 74.0 51.7 29.27 51.7 609 275 289 -0.92 0.00 0.00 0.000
2:00am 60 0 0 40 96 74.0 51.7 29.27 51.7 609 275 289 -0.90 0.00 0.00 0.000
2:01am 60 0 0 40 96 74.0 51.6 29.27 51.6 609 275 282 -0.99 0.00 0.00 0.000
2:02am 60 0 0 40 96 74.0 51.6 29.27 51.6 609 275 282 -0.97 0.00 0.00 0.000
2:03am 60 0 0 40 96 74.0 51.6 29.27 51.6 609 275 282 -0.95 0.00 0.00 0.000
2:04am 60 0 0 40 96 74.0 51.6 29.27 51.6 609 275 282 -0.94 0.00 0.00 0.000
2:05am 60 0 0 40 96 74.0 51.5 29.27 51.5 609 275 276 -1.02 0.00 0.00 0.000
2:06am 60 0 0 40 96 74.0 51.6 29.27 51.6 610 275 283 -0.91 0.00 0.00 0.000
2:07am 60 0 0 40 96 74.0 51.5 29.27 51.5 609 275 276 -0.99 0.00 0.00 0.000
2:08am 60 0 0 40 96 74.0 51.5 29.27 51.5 609 275 276 -0.97 0.00 0.00 0.000
2:09am 60 0 0 40 96 74.0 51.5 29.27 51.5 609 275 276 -0.96 0.00 0.00 0.000
2:10am 60 0 0 40 96 74.0 51.5 29.27 51.5 609 275 276 -0.94 0.00 0.00 0.000
2:11am 60 0 0 40 96 74.0 51.4 29.27 51.4 609 275 269 -1.02 0.00 0.00 0.000
2:12am 60 0 0 40 96 74.0 51.4 29.27 51.4 610 275 270 -1.01 0.00 0.00 0.000
2:13am 60 0 0 40 96 74.0 51.4 29.27 51.4 610 275 270 -0.99 0.00 0.00 0.000
2:14am 60 0 0 40 96 74.0 51.4 29.27 51.4 610 275 270 -0.97 0.00 0.00 0.000
2:15am 60 0 0 40 96 74.0 51.3 29.26 51.3 611 275 265 -1.05 0.00 0.00 0.000
2:16am 60 0 0 40 96 74.0 51.3 29.26 51.3 612 275 266 -1.04 0.00 0.00 0.000
2:17am 60 0 0 40 96 74.0 51.2 29.26 51.2 612 275 259 -1.12 0.00 0.00 0.000
2:18am 60 0 0 40 96 74.0 51.2 29.26 51.2 612 275 259 -1.10 0.00 0.00 0.000
2:19am 60 0 0 40 96 74.0 51.2 29.26 51.2 612 275 259 -1.08 0.00 0.00 0.000
2:20am 60 0 0 40 96 74.0 51.2 29.26 51.2 614 275 261 -1.06 0.00 0.00 0.000
2:21am 60 0 0 40 96 74.0 51.1 29.26 51.1 614 274 255 -1.14 0.00 0.00 0.000
2:22am 60 0 0 40 96 74.0 51.1 29.26 51.1 614 274 255 -1.13 0.00 0.00 0.000
2:23am 60 0 0 40 96 74.0 51.1 29.26 51.1 616 274 257 -1.11 0.00 0.00 0.000
2:24am 60 0 0 40 96 74.0 51.1 29.26 51.1 617 274 258 -1.09 0.00 0.00 0.000
2:25am 60 0 0 40 96 74.0 51.1 29.26 51.1 617 274 258 -1.07 0.00 0.00 0.000
2:26am 60 0 0 40 96 74.0 51.0 29.26 51.0 617 274 251 -1.15 0.00 0.00 0.000
2:27am 60 0 0 40 96 74.0 51.1 29.26 51.1 617 274 258 -1.03 0.00 0.00 0.000
2:28am 60 0 0 40 96 74.0 51.0 29.26 51.0 617 274 251 -1.12 0.00 0.00 0.000
2:29am 60 0 0 40 96 74.0 51.1 29.26 51.1 617 274 258 -1.00 0.00 0.00 0.000
2:30am 60 0 0 40 96 74.0 51.0 29.26 51.0 616 274 250 -1.08 0.00 0.00 0.000
2:31am 60 0 0 40 96 74.0 51.0 29.26 51.0 617 274 251 -1.06 0.00 0.00 0.000
2:32am 60 0 0 40 96 74.0 51.1 29.26 51.1 617 274 258 -0.95 0.00 0.00 0.000
2:33am 60 0 0 40 96 74.0 51.1 29.26 51.1 616 274 257 -0.93 0.00 0.00 0.000
2:34am 60 0 0 40 96 74.0 51.0 29.26 51.0 617 274 251 -1.01 0.00 0.00 0.000
2:35am 60 0 0 40 96 74.0 51.0 29.26 51.0 617 274 251 -1.00 0.00 0.00 0.000
2:36am 60 0 0 40 96 74.0 51.0 29.26 51.0 617 274 251 -0.98 0.00 0.00 0.000
2:37am 60 0 0 40 96 74.0 51.0 29.26 51.0 616 274 250 -0.96 0.00 0.00 0.000
2:38am 60 0 0 40 96 74.0 51.0 29.26 51.0 615 274 249 -0.95 0.00 0.00 0.000
2:39am 60 0 0 40 96 74.0 50.9 29.26 50.9 615 274 242 -1.03 0.00 0.00 0.000
2:40am 60 0 0 40 96 74.0 50.9 29.26 50.9 615 274 242 -1.01 0.00 0.00 0.000
2:41am 60 0 0 40 96 74.0 50.9 29.26 50.9 613 274 240 -1.00 0.00 0.00 0.000
2:42am 60 0 0 40 96 74.0 50.9 29.26 50.9 613 274 240 -0.98 0.00 0.00 0.000
2:43am 60 0 0 40 96 74.0 50.8 29.26 50.8 611 274 231 -1.06 0.00 0.00 0.000
2:44am 60 0 0 40 96 74.0 50.8 29.27 50.8 610 274 230 -1.05 0.00 0.00 0.000
2:45am 60 0 0 40 96 74.0 50.9 29.27 50.9 610 274 237 -0.93 0.00 0.00 0.000
2:46am 60 0 0 40 96 74.0 50.8 29.27 50.8 610 274 230 -1.01 0.00 0.00 0.000
2:47am 60 0 0 40 96 74.0 50.8 29.27 50.8 609 274 229 -1.00 0.00 0.00 0.000
2:48am 60 0 0 40 96 74.0 50.8 29.27 50.8 609 274 229 -0.98 0.00 0.00 0.000
2:49am 60 0 0 40 96 74.0 50.7 29.27 50.7 609 274 222 -1.06 0.00 0.00 0.000
2:50am 60 0 0 40 96 74.0 50.7 29.27 50.7 609 274 222 -1.05 0.00 0.00 0.000
2:51am 60 0 0 40 96 74.0 50.7 29.27 50.7 609 274 221 -1.03 0.00 0.00 0.000
2:52am 60 0 0 40 96 74.0 50.7 29.27 50.7 609 274 221 -1.01 0.00 0.00 0.000
2:53am 60 0 0 40 96 74.0 50.7 29.27 50.7 609 274 221 -1.00 0.00 0.00 0.000
2:54am 60 0 0 40 96 74.0 50.7 29.27 50.7 609 274 221 -0.98 0.00 0.00 0.000
2:55am 60 0 0 40 96 74.0 50.7 29.27 50.7 609 274 221 -0.96 0.00 0.00 0.000
2:56am 60 0 0 40 96 74.0 50.7 29.27 50.7 608 274 220 -0.95 0.00 0.00 0.000
2:57am 60 0 0 40 96 74.0 50.6 29.27 50.6 608 274 213 -1.03 0.00 0.00 0.000
2:58am 60 0 0 40 97 74.0 50.7 29.27 50.7 607 204 219 -0.92 0.00 0.00 0.000
2:59am 60 0 0 40 97 74.0 50.6 29.27 50.6 606 204 211 -1.00 0.00 0.00 0.000
3:00am 60 0 0 40 97 74.2 50.7 29.27 50.7 606 204 218 -0.89 0.00 0.00 0.000
3:01am 60 0 0 40 97 74.2 50.7 29.27 50.7 607 204 219 -0.87 0.00 0.00 0.000
3:02am 60 0 0 40 97 74.2 50.6 29.27 50.6 607 204 212 -0.96 0.00 0.00 0.000
3:03am 60 0 0 40 97 74.2 50.7 29.27 50.7 608 204 220 -0.84 0.00 0.00 0.000
3:04am 60 0 0 40 97 74.2 50.6 29.27 50.6 608 204 213 -0.93 0.00 0.00 0.000
3:05am 60 0 0 40 97 74.2 50.7 29.27 50.7 608 204 220 -0.81 0.00 0.00 0.000
3:06am 60 0 0 40 97 74.2 50.7 29.27 50.7 608 204 220 -0.80 0.00 0.00 0.000
3:07am 60 0 0 40 97 74.2 50.7 29.27 50.7 607 204 219 -0.79 0.00 0.00 0.000
3:08am 60 0 0 40 97 74.2 50.7 29.27 50.7 607 204 219 -0.77 0.00 0.00 0.000
3:09am 60 0 0 40 97 74.2 50.7 29.27 50.7 607 204 219 -0.76 0.00 0.00 0.000
3:10am 60 0 0 40 97 74.2 50.7 29.27 50.7 607 204 219 -0.75 0.00 0.00 0.000
3:11am 60 0 0 40 97 74.2 50.7 29.27 50.7 607 204 219 -0.73 0.00 0.00 0.000
3:12am 60 0 0 40 97 74.2 50.7 29.27 50.7 608 204 220 -0.72 0.00 0.00 0.000
3:13am 60 0 0 40 97 74.2 50.7 29.27 50.7 608 204 220 -0.71 0.00 0.00 0.000
3:14am 60 0 0 40 97 74.2 50.7 29.27 50.7 607 204 219 -0.70 0.00 0.00 0.000
3:15am 60 0 0 40 97 74.2 50.7 29.27 50.7 607 204 219 -0.69 0.00 0.00 0.000
3:16am 60 0 0 40 97 74.2 50.7 29.27 50.7 607 204 219 -0.68 0.00 0.00 0.000
3:17am 60 0 0 40 97 74.2 50.6 29.27 50.6 606 204 211 -0.76 0.00 0.00 0.000
3:18am 60 0 0 40 97 74.2 50.7 29.27 50.7 606 204 218 -0.65 0.00 0.00 0.000
3:19am 60 0 0 40 97 74.2 50.7 29.27 50.7 605 204 216 -0.64 0.00 0.00 0.000
3:20am 60 0 0 40 97 74.2 50.6 29.27 50.6 606 204 211 -0.73 0.00 0.00 0.000
3:21am 60 0 0 40 97 74.2 50.6 29.27 50.6 606 204 211 -0.72 0.00 0.00 0.000
3:22am 60 0 0 40 97 74.2 50.6 29.27 50.6 606 204 211 -0.71 0.00 0.00 0.000
3:23am 60 0 0 40 97 74.2 50.6 29.27 50.6 605 204 210 -0.70 0.00 0.00 0.000
3:24am 60 0 0 40 97 74.2 50.6 29.27 50.6 605 204 210 -0.68 0.00 0.00 0.000
3:25am 60 0 0 40 97 74.2 50.7 29.27 50.7 605 204 216 -0.57 0.00 0.00 0.000
3:26am 60 0 0 40 97 74.2 50.7 29.27 50.7 605 204 216 -0.56 0.00 0.00 0.000
3:27am 60 0 0 40 97 74.2 50.7 29.27 50.7 605 204 216 -0.56 0.00 0.00 0.000
3:28am 60 0 0 40 97 74.2 50.6 29.27 50.6 605 204 210 -0.65 0.00 0.00 0.000
3:29am 60 0 0 40 97 74.2 50.6 29.27 50.6 604 204 209 -0.64 0.00 0.00 0.000
3:30am 60 0 0 40 97 74.2 50.6 29.27 50.6 603 204 208 -0.63 0.00 0.00 0.000
3:31am 60 0 0 40 97 74.2 50.6 29.27 50.6 602 204 206 -0.61 0.00 0.00 0.000
3:32am 60 0 0 40 97 74.2 50.6 29.28 50.6 600 204 204 -0.61 0.00 0.00 0.000
3:33am 60 0 0 40 97 74.2 50.5 29.28 50.5 600 204 197 -0.69 0.00 0.00 0.000
3:34am 60 0 0 40 97 74.2 50.6 29.28 50.6 599 204 203 -0.58 0.00 0.00 0.000
3:35am 60 0 0 40 97 74.2 50.6 29.28 50.6 600 204 204 -0.58 0.00 0.00 0.000
3:36am 57 0 0 40 97 74.2 50.5 29.28 50.5 599 204 196 -0.67 0.00 0.00 0.000
3:37am 57 0 0 40 97 74.2 50.6 29.28 50.6 599 204 203 -0.55 0.00 0.00 0.000
3:38am 71 0 1 40 97 74.2 50.6 29.28 50.6 599 204 203 -0.55 0.00 0.00 0.000
3:39am 71 1 2 40 97 74.2 50.5 29.28 50.5 599 204 196 -0.64 0.00 0.00 0.000
3:40am 71 0 2 40 97 74.2 50.6 29.28 50.6 599 204 203 -0.53 0.00 0.00 0.000
3:41am 71 2 2 40 97 74.2 50.5 29.28 50.5 599 204 196 -0.62 0.00 0.00 0.000
3:42am 71 1 3 40 97 74.2 50.6 29.28 50.6 598 204 202 -0.51 0.00 0.00 0.000
3:43am 71 0 3 40 97 74.2 50.6 29.28 50.6 598 204 202 -0.50 0.00 0.00 0.000
3:44am 71 0 3 40 97 74.2 50.6 29.28 50.6 598 204 202 -0.49 0.00 0.00 0.000
3:45am 71 1 3 40 97 74.2 50.6 29.28 50.6 597 204 201 -0.48 0.00 0.00 0.000
3:46am 71 1 2 40 97 74.2 50.7 29.28 50.7 596 204 206 -0.38 0.00 0.00 0.000
3:47am 71 2 2 40 97 74.2 50.8 29.28 50.8 596 204 212 -0.27 0.00 0.00 0.000
3:48am 71 1 2 40 97 74.2 50.8 29.28 50.8 595 204 211 -0.27 0.00 0.00 0.000
3:49am 71 0 2 42 97 74.2 50.8 29.28 50.8 595 204 211 -0.26 0.00 0.00 0.000
3:50am 71 0 2 40 97 74.2 50.8 29.28 50.8 595 204 211 -0.26 0.00 0.00 0.000
3:51am 71 0 1 40 97 74.2 50.8 29.28 50.8 595 204 211 -0.25 0.00 0.00 0.000
3:52am 71 0 1 40 97 74.2 50.8 29.28 50.8 595 204 211 -0.25 0.00 0.00 0.000
3:53am 71 0 1 40 97 74.2 50.8 29.28 50.8 595 204 211 -0.25 0.00 0.00 0.000
3:54am 71 0 1 40 97 74.2 50.8 29.28 50.8 595 204 211 -0.24 0.00 0.00 0.000
3:55am 71 0 1 40 97 74.2 50.9 29.28 50.9 595 205 217 -0.14 0.00 0.00 0.000
3:56am 71 1 2 40 97 74.2 50.9 29.28 50.9 595 205 217 -0.14 0.00 0.00 0.000
3:57am 71 1 2 40 97 74.2 50.9 29.28 50.9 595 205 217 -0.13 0.00 0.00 0.000
3:58am 71 2 2 40 97 74.2 50.9 29.28 50.9 594 205 216 -0.13 0.00 0.00 0.000
3:59am 29 3 3 40 97 74.2 50.9 29.29 50.7 589 205 210 -0.13 0.00 0.00 0.000
4:00am 2 4 5 40 97 74.2 50.9 29.30 49.9 580 205 199 -0.13 0.00 0.00 0.000
4:01am 2 1 4 40 97 74.2 50.9 29.30 50.9 580 205 199 -0.13 0.00 0.00 0.000
4:02am 22 4 4 40 97 74.2 50.8 29.30 49.8 581 204 193 -0.22 0.00 0.00 0.000
4:03am 77 2 4 40 97 74.2 50.8 29.29 50.8 590 204 205 -0.22 0.00 0.00 0.000
4:04am 79 0 4 40 97 74.2 50.8 29.29 50.8 590 204 205 -0.22 0.00 0.00 0.000
4:05am 79 2 4 40 97 74.2 50.7 29.29 50.7 591 204 199 -0.31 0.00 0.00 0.000
4:06am 31 5 5 40 97 74.2 50.7 29.30 49.0 583 204 189 -0.31 0.00 0.00 0.000
4:07am 9 4 5 40 97 74.2 50.6 29.30 49.6 579 204 178 -0.40 0.00 0.00 0.000
4:08am 9 1 5 40 97 74.3 50.6 29.30 50.6 576 204 174 -0.39 0.00 0.00 0.000
4:09am 9 0 5 40 97 74.2 50.5 29.30 50.5 579 204 171 -0.49 0.00 0.00 0.000
4:10am 12 1 5 40 97 74.3 50.5 29.30 50.5 582 204 174 -0.48 0.00 0.00 0.000
4:11am 12 2 2 40 97 74.3 50.5 29.30 50.5 581 204 173 -0.47 0.00 0.00 0.000
4:12am 12 2 4 40 97 74.3 50.4 29.30 50.4 580 204 166 -0.56 0.00 0.00 0.000
4:13am 12 2 4 40 97 74.3 50.3 29.30 50.3 576 204 154 -0.65 0.00 0.00 0.000
4:14am 12 2 4 40 97 74.3 50.3 29.30 50.3 577 204 155 -0.64 0.00 0.00 0.000
4:15am 83 2 4 40 97 74.3 50.2 29.30 50.2 580 204 152 -0.73 0.00 0.00 0.000
4:16am 83 0 2 40 97 74.3 50.2 29.30 50.2 582 204 154 -0.72 0.00 0.00 0.000
4:17am 81 2 2 40 97 74.3 50.1 29.29 50.1 584 204 150 -0.80 0.00 0.00 0.000
4:18am 81 2 3 40 97 74.3 50.1 29.30 50.1 581 204 147 -0.79 0.00 0.00 0.000
4:19am 81 2 3 40 97 74.2 50.1 29.30 50.1 580 204 145 -0.78 0.00 0.00 0.000
4:20am 81 0 3 40 97 74.2 50.1 29.30 50.1 580 204 145 -0.76 0.00 0.00 0.000
4:21am 81 2 3 40 97 74.3 50.1 29.30 50.1 581 204 147 -0.75 0.00 0.00 0.000
4:22am 81 0 3 40 97 74.3 50.0 29.30 50.0 581 204 140 -0.84 0.00 0.00 0.000
4:23am 81 2 3 40 97 74.3 50.0 29.30 50.0 580 204 139 -0.82 0.00 0.00 0.000
4:24am 81 2 3 40 97 74.3 50.0 29.30 50.0 579 204 138 -0.81 0.00 0.00 0.000
4:25am 81 0 3 40 97 74.3 50.0 29.30 50.0 579 204 138 -0.80 0.00 0.00 0.000
4:26am 81 0 2 40 97 74.3 49.9 29.30 49.9 581 204 133 -0.88 0.00 0.00 0.000
4:27am 81 1 2 40 97 74.3 50.0 29.30 50.0 581 204 140 -0.77 0.00 0.00 0.000
4:28am 81 0 2 40 97 74.3 50.0 29.30 50.0 582 204 141 -0.76 0.00 0.00 0.000
4:29am 81 2 2 40 97 74.3 50.0 29.30 50.0 581 204 140 -0.74 0.00 0.00 0.000
4:30am 81 1 2 40 97 74.3 50.0 29.30 50.0 580 204 139 -0.73 0.00 0.00 0.000
4:31am 81 0 2 40 97 74.3 49.9 29.30 49.9 580 204 132 -0.82 0.00 0.00 0.000
4:32am 81 0 2 40 97 74.3 50.0 29.30 50.0 580 204 139 -0.71 0.00 0.00 0.000
4:33am 81 0 2 40 97 74.3 49.9 29.30 49.9 581 204 133 -0.79 0.00 0.00 0.000
4:34am 81 0 2 40 97 74.3 50.0 29.30 50.0 581 204 140 -0.68 0.00 0.00 0.000
4:35am 81 0 2 40 97 74.3 50.0 29.30 50.0 580 204 139 -0.67 0.00 0.00 0.000
4:36am 81 2 2 40 97 74.3 49.9 29.30 49.9 580 204 132 -0.76 0.00 0.00 0.000
4:37am 81 1 2 40 97 74.3 49.9 29.30 49.9 579 204 131 -0.75 0.00 0.00 0.000
4:38am 81 0 2 40 97 74.3 49.9 29.30 49.9 579 204 131 -0.73 0.00 0.00 0.000
4:39am 81 0 2 40 97 74.3 50.0 29.30 50.0 579 204 138 -0.62 0.00 0.00 0.000
4:40am 81 0 2 40 97 74.3 49.9 29.30 49.9 579 204 131 -0.71 0.00 0.00 0.000
4:41am 81 0 0 40 97 74.3 49.9 29.30 49.9 580 204 132 -0.70 0.00 0.00 0.000
4:42am 81 0 1 40 97 74.3 49.9 29.30 49.9 580 204 132 -0.69 0.00 0.00 0.000
4:43am 81 2 2 40 97 74.3 49.9 29.30 49.9 579 204 131 -0.68 0.00 0.00 0.000
4:44am 81 0 2 40 97 74.3 49.9 29.30 49.9 580 204 132 -0.67 0.00 0.00 0.000
4:45am 81 0 2 40 97 74.3 49.8 29.30 49.8 580 204 125 -0.76 0.00 0.00 0.000
4:46am 81 0 0 40 97 74.3 49.9 29.30 49.9 581 204 133 -0.64 0.00 0.00 0.000
4:47am 81 2 2 40 97 74.3 49.9 29.30 49.9 582 204 134 -0.63 0.00 0.00 0.000
4:48am 81 0 2 40 97 74.3 49.8 29.30 49.8 581 204 126 -0.72 0.00 0.00 0.000
4:49am 81 0 2 40 97 74.3 49.8 29.30 49.8 581 204 126 -0.71 0.00 0.00 0.000
4:50am 81 0 2 40 97 74.3 49.8 29.30 49.8 581 204 126 -0.70 0.00 0.00 0.000
4:51am 81 1 1 40 97 74.3 49.8 29.30 49.8 581 204 126 -0.69 0.00 0.00 0.000
4:52am 81 1 2 40 97 74.3 49.8 29.30 49.8 581 204 126 -0.67 0.00 0.00 0.000
4:53am 81 1 2 40 97 74.3 49.8 29.30 49.8 580 204 125 -0.66 0.00 0.00 0.000
4:54am 81 1 2 40 97 74.3 49.8 29.30 49.8 580 204 125 -0.65 0.00 0.00 0.000
4:55am 81 1 2 40 97 74.3 49.8 29.30 49.8 580 204 125 -0.64 0.00 0.00 0.000
4:56am 81 0 1 40 97 74.3 49.9 29.30 49.9 580 204 132 -0.53 0.00 0.00 0.000
4:57am 81 0 1 40 97 74.3 49.8 29.30 49.8 580 204 125 -0.62 0.00 0.00 0.000
4:58am 81 0 1 40 97 74.3 49.8 29.30 49.8 581 204 126 -0.61 0.00 0.00 0.000
4:59am 81 1 1 40 97 74.3 49.8 29.30 49.8 581 204 126 -0.60 0.00 0.00 0.000
5:00am 81 0 1 40 97 74.3 49.8 29.30 49.8 581 204 126 -0.59 0.00 0.00 0.000
5:01am 81 0 0 40 97 74.3 49.8 29.30 49.8 581 204 126 -0.58 0.00 0.00 0.000
5:02am 81 0 1 40 97 74.3 49.8 29.30 49.8 581 204 126 -0.57 0.00 0.00 0.000
5:03am 81 1 1 40 97 74.3 49.8 29.30 49.8 582 204 128 -0.56 0.00 0.00 0.000
5:04am 81 0 1 40 97 74.3 49.9 29.30 49.9 582 204 134 -0.45 0.00 0.00 0.000
5:05am 81 2 2 40 97 74.3 49.8 29.30 49.8 583 204 129 -0.54 0.00 0.00 0.000
5:06am 81 1 2 40 97 74.3 49.9 29.30 49.9 583 204 135 -0.44 0.00 0.00 0.000
5:07am 81 0 2 40 97 74.3 49.8 29.30 49.8 582 204 128 -0.53 0.00 0.00 0.000
5:08am 81 0 2 40 97 74.3 49.8 29.30 49.8 582 204 128 -0.52 0.00 0.00 0.000
5:09am 81 0 2 40 97 74.3 49.8 29.30 49.8 582 204 128 -0.51 0.00 0.00 0.000
5:10am 81 0 2 40 97 74.3 49.8 29.30 49.8 582 204 128 -0.50 0.00 0.00 0.000
5:11am 81 0 0 40 97 74.3 49.8 29.30 49.8 582 204 128 -0.49 0.00 0.00 0.000
5:12am 81 0 0 40 97 74.3 49.8 29.30 49.8 581 204 126 -0.49 0.00 0.00 0.000
5:13am 81 0 0 40 97 74.3 49.8 29.30 49.8 581 204 126 -0.48 0.00 0.00 0.000
5:14am 81 0 0 40 97 74.3 49.7 29.30 49.7 581 204 120 -0.57 0.00 0.00 0.000
5:15am 81 0 0 40 97 74.3 49.7 29.30 49.7 581 204 120 -0.56 0.00 0.00 0.000
5:16am 81 0 0 40 97 74.3 49.7 29.30 49.7 581 204 120 -0.55 0.00 0.00 0.000
5:17am 81 0 0 40 97 74.3 49.7 29.30 49.7 581 204 120 -0.54 0.00 0.00 0.000
5:18am 81 0 0 40 97 74.3 49.7 29.30 49.7 581 204 120 -0.53 0.00 0.00 0.000
5:19am 81 0 0 40 97 74.3 49.7 29.30 49.7 581 204 120 -0.53 0.00 0.00 0.000
5:20am 81 0 0 40 97 74.3 49.7 29.30 49.7 581 204 120 -0.52 0.00 0.00 0.000
5:21am 81 0 0 40 97 74.3 49.7 29.30 49.7 581 204 120 -0.51 0.00 0.00 0.000
5:22am 81 0 0 40 97 74.3 49.6 29.30 49.6 581 203 113 -0.60 0.00 0.00 0.000
5:23am 81 0 0 40 97 74.3 49.6 29.30 49.6 581 203 113 -0.59 0.00 0.00 0.000
5:24am 81 0 0 40 97 74.3 49.6 29.30 49.6 581 203 113 -0.58 0.00 0.00 0.000
5:25am 81 0 0 40 97 74.3 49.6 29.30 49.6 581 203 113 -0.57 0.00 0.00 0.000
5:26am 81 0 0 40 97 74.3 49.6 29.30 49.6 581 203 113 -0.56 0.00 0.00 0.000
5:27am 81 0 0 40 97 74.3 49.7 29.30 49.7 581 204 120 -0.45 0.00 0.00 0.000
5:28am 81 0 0 40 97 74.3 49.6 29.30 49.6 581 203 113 -0.54 0.00 0.00 0.000
5:29am 81 0 0 40 97 74.3 49.6 29.30 49.6 581 203 113 -0.53 0.00 0.00 0.000
5:30am 81 0 0 42 97 74.3 49.6 29.30 49.6 582 203 114 -0.52 0.00 0.00 0.000
5:31am 81 0 0 40 97 74.3 49.6 29.30 49.6 582 203 114 -0.52 0.00 0.00 0.000
5:32am 81 0 0 40 97 74.3 49.6 29.29 49.6 584 203 117 -0.51 0.00 0.00 0.000
5:33am 81 0 0 40 97 74.3 49.6 29.29 49.6 584 203 117 -0.50 0.00 0.00 0.000
5:34am 81 0 0 40 97 74.3 49.6 29.29 49.6 584 203 118 -0.49 0.00 0.00 0.000
5:35am 81 0 0 40 97 74.3 49.6 29.29 49.6 584 203 118 -0.48 0.00 0.00 0.000
5:36am 81 0 0 40 97 74.3 49.6 29.29 49.6 584 203 117 -0.47 0.00 0.00 0.000
5:37am 81 0 0 40 97 74.3 49.5 29.30 49.5 582 203 108 -0.56 0.00 0.00 0.000
5:38am 81 0 0 40 97 74.3 49.5 29.30 49.5 582 203 108 -0.56 0.00 0.00 0.000
5:39am 81 0 0 40 97 74.3 49.5 29.30 49.5 581 203 106 -0.55 0.00 0.00 0.000
5:40am 81 0 0 40 97 74.3 49.5 29.30 49.5 580 203 105 -0.54 0.00 0.00 0.000
5:41am 81 0 0 40 97 74.3 49.5 29.30 49.5 580 203 105 -0.53 0.00 0.00 0.000
5:42am 81 0 0 40 97 74.3 49.5 29.30 49.5 579 203 104 -0.52 0.00 0.00 0.000
5:43am 81 0 0 40 97 74.3 49.5 29.30 49.5 579 203 104 -0.51 0.00 0.00 0.000
5:44am 81 0 0 40 97 74.3 49.5 29.30 49.5 579 203 104 -0.50 0.00 0.00 0.000
5:45am 81 0 0 40 97 74.3 49.5 29.30 49.5 579 203 104 -0.49 0.00 0.00 0.000
5:46am 81 0 0 40 97 74.3 49.4 29.30 49.4 578 203 96 -0.59 0.00 0.00 0.000
5:47am 81 0 0 40 97 74.3 49.4 29.30 49.4 578 203 96 -0.58 0.00 0.00 0.000
5:48am 81 0 0 40 97 74.3 49.4 29.30 49.4 578 203 96 -0.57 0.00 0.00 0.000
5:49am 81 0 0 40 97 74.3 49.4 29.30 49.4 577 203 95 -0.56 0.00 0.00 0.000
5:50am 81 0 0 40 97 74.3 49.4 29.30 49.4 578 203 96 -0.55 0.00 0.00 0.000
5:51am 81 0 0 40 97 74.3 49.4 29.30 49.4 578 203 96 -0.54 0.00 0.00 0.000
5:52am 81 0 0 40 97 74.3 49.3 29.30 49.3 579 203 91 -0.63 0.00 0.00 0.000
5:53am 81 0 0 40 97 74.3 49.3 29.30 49.3 578 203 90 -0.62 0.00 0.00 0.000
5:54am 81 0 0 40 97 74.3 49.3 29.30 49.3 579 203 91 -0.61 0.00 0.00 0.000
5:55am 81 0 0 40 97 74.3 49.3 29.30 49.3 579 203 91 -0.60 0.00 0.00 0.000
5:56am 81 0 0 40 97 74.3 49.2 29.30 49.2 579 203 84 -0.69 0.00 0.00 0.000
5:57am 81 0 0 40 97 74.3 49.3 29.30 49.3 579 203 91 -0.58 0.00 0.00 0.000
5:58am 81 0 0 40 97 74.3 49.2 29.30 49.2 578 203 83 -0.67 0.00 0.00 0.000
5:59am 81 0 0 40 97 74.3 49.2 29.30 49.2 575 203 79 -0.66 0.00 0.00 0.000
6:00am 81 0 0 40 97 74.3 49.2 29.30 49.2 575 203 79 -0.65 0.00 0.00 0.000
6:01am 81 0 0 40 97 74.3 49.2 29.31 49.2 572 203 76 -0.64 0.00 0.00 0.000
6:02am 81 0 0 40 97 74.3 49.2 29.31 49.2 571 203 74 -0.62 0.00 0.00 0.000
6:03am 81 0 0 40 97 74.3 49.1 29.31 49.1 569 203 65 -0.71 0.00 0.00 0.000
6:04am 81 0 0 40 98 74.3 49.2 29.31 49.2 568 135 70 -0.60 0.00 0.00 0.000
6:05am 81 0 0 40 98 74.3 49.2 29.31 49.2 567 135 69 -0.59 0.00 0.00 0.000
6:06am 81 0 0 40 98 74.3 49.2 29.31 49.2 567 135 69 -0.58 0.00 0.00 0.000
6:07am 81 0 0 40 98 74.3 49.3 29.31 49.3 567 135 76 -0.47 0.00 0.00 0.000
6:08am 81 0 0 40 98 74.5 49.3 29.31 49.3 568 135 77 -0.47 0.00 0.00 0.000
6:09am 81 0 0 40 97 74.3 49.2 29.31 49.2 567 203 69 -0.56 0.00 0.00 0.000
6:10am 81 0 0 40 97 74.3 49.3 29.31 49.3 566 203 75 -0.45 0.00 0.00 0.000
6:11am 81 0 0 40 97 74.3 49.2 29.31 49.2 566 203 68 -0.54 0.00 0.00 0.000
6:12am 81 0 0 40 98 74.3 49.2 29.31 49.2 566 135 68 -0.53 0.00 0.00 0.000
6:13am 81 0 0 40 97 74.3 49.2 29.31 49.2 566 203 68 -0.52 0.00 0.00 0.000
6:14am 81 0 0 40 97 74.3 49.2 29.31 49.2 565 203 67 -0.51 0.00 0.00 0.000
6:15am 81 0 0 40 97 74.3 49.2 29.31 49.2 566 203 68 -0.50 0.00 0.00 0.000
6:16am 81 0 0 40 97 74.3 49.2 29.31 49.2 566 203 68 -0.50 0.00 0.00 0.000
6:17am 81 0 0 40 98 74.3 49.2 29.31 49.2 566 135 68 -0.49 0.00 0.00 0.000
6:18am 81 0 0 40 97 74.3 49.1 29.31 49.1 566 203 61 -0.58 0.00 0.00 0.000
6:19am 81 0 0 40 97 74.3 49.1 29.31 49.1 566 203 61 -0.57 0.00 0.00 0.000
6:20am 81 0 0 40 98 74.3 49.2 29.31 49.2 566 135 68 -0.46 0.00 0.00 0.000
6:21am 81 0 0 40 98 74.3 49.2 29.31 49.2 565 135 67 -0.45 0.00 0.00 0.000
6:22am 81 0 0 40 98 74.3 49.2 29.31 49.2 565 135 67 -0.44 0.00 0.00 0.000
6:23am 81 0 0 40 98 74.3 49.2 29.31 49.2 565 135 67 -0.44 0.00 0.00 0.000
6:24am 81 0 0 40 98 74.3 49.3 29.31 49.3 565 135 74 -0.33 0.00 0.00 0.000
6:25am 81 0 0 40 98 74.3 49.3 29.32 49.3 564 135 72 -0.32 0.00 0.00 0.000
6:26am 81 0 0 40 98 74.3 49.4 29.32 49.4 564 135 79 -0.22 0.00 0.00 0.000
6:27am 81 0 0 40 98 74.3 49.5 29.31 49.5 565 135 87 -0.12 0.00 0.00 0.000
6:28am 81 1 1 40 98 74.3 49.5 29.31 49.5 565 135 87 -0.11 0.00 0.00 0.000
6:29am 81 0 1 40 98 74.3 49.6 29.31 49.6 565 135 94 -0.01 0.00 0.00 0.000
6:30am 81 0 1 40 98 74.3 49.7 29.31 49.7 565 135 100 0.09 0.00 0.00 0.000
6:31am 81 1 1 40 98 74.3 49.7 29.31 49.7 565 135 100 0.08 0.00 0.00 0.000
6:32am 81 1 1 40 98 74.3 49.8 29.32 49.8 564 135 106 0.18 0.00 0.00 0.000
6:33am 81 1 1 40 98 74.3 49.8 29.32 49.8 564 135 106 0.18 0.00 0.00 0.000
6:34am 81 1 2 40 98 74.3 49.9 29.32 49.9 563 135 111 0.28 0.00 0.00 0.000
6:35am 81 1 2 40 98 74.3 50.0 29.32 50.0 562 135 117 0.37 0.00 0.00 0.000
6:36am 81 0 2 40 98 74.3 49.9 29.32 49.9 561 135 109 0.27 0.00 0.00 0.000
6:37am 81 0 2 40 98 74.3 50.0 29.32 50.0 561 135 116 0.36 0.00 0.00 0.000
6:38am 81 0 2 40 98 74.3 50.1 29.32 50.1 560 135 121 0.45 0.00 0.00 0.000
6:39am 81 0 2 40 98 74.3 50.1 29.32 50.1 560 135 120 0.44 0.00 0.00 0.000
6:40am 81 0 2 40 98 74.3 50.1 29.32 50.1 560 135 120 0.44 0.00 0.00 0.000
6:41am 81 0 0 40 98 74.3 50.2 29.32 50.2 560 135 127 0.53 0.00 0.00 0.000
6:42am 81 1 2 40 98 74.3 50.2 29.32 50.2 555 135 121 0.52 0.00 0.00 0.000
6:43am 81 2 3 40 98 74.3 50.3 29.33 50.3 550 135 122 0.61 0.00 0.00 0.000
6:44am 81 2 3 40 98 74.3 50.3 29.33 50.3 550 135 122 0.60 0.00 0.00 0.000
6:45am 81 1 3 40 98 74.3 50.3 29.33 50.3 551 135 123 0.59 0.00 0.00 0.000
6:46am 81 0 2 40 98 74.3 50.3 29.33 50.3 551 135 123 0.58 0.00 0.00 0.000
6:47am 81 1 2 40 98 74.3 50.3 29.33 50.3 551 135 123 0.57 0.00 0.00 0.000
6:48am 81 1 2 40 98 74.3 50.4 29.33 50.4 551 135 130 0.66 0.00 0.00 0.000
6:49am 81 1 2 40 98 74.3 50.3 29.33 50.3 551 135 123 0.55 0.00 0.00 0.000
6:50am 73 3 3 40 98 74.3 50.4 29.33 50.1 550 135 129 0.64 0.00 0.00 0.000
6:51am 73 1 3 40 98 74.3 50.4 29.33 50.4 550 135 129 0.63 0.00 0.00 0.000
6:52am 73 2 3 40 98 74.3 50.4 29.33 50.4 550 135 129 0.62 0.00 0.00 0.000
6:53am 73 0 3 40 98 74.3 50.5 29.33 50.5 550 135 136 0.71 0.00 0.00 0.000
6:54am 73 1 3 40 98 74.3 50.5 29.33 50.5 550 135 136 0.70 0.00 0.00 0.000
6:55am 73 1 3 40 98 74.3 50.5 29.33 50.5 549 135 134 0.69 0.00 0.00 0.000
6:56am 73 2 2 40 98 74.3 50.6 29.33 50.6 549 135 141 0.77 0.00 0.00 0.000
6:57am 73 1 2 40 98 74.3 50.6 29.33 50.6 550 135 142 0.76 0.00 0.00 0.000
6:58am 73 0 2 40 98 74.3 50.6 29.33 50.6 549 135 141 0.75 0.00 0.00 0.000
6:59am 73 1 2 40 98 74.3 50.6 29.33 50.6 549 135 141 0.74 0.00 0.00 0.000
7:00am 73 1 2 40 98 74.3 50.7 29.33 50.7 549 135 148 0.82 0.00 0.00 0.000
7:01am 73 0 2 40 98 74.3 50.8 29.33 50.8 549 136 155 0.91 0.00 0.00 0.000
7:02am 73 1 2 40 98 74.3 50.8 29.33 50.8 550 136 156 0.89 0.00 0.00 0.000
7:03am 73 0 2 40 98 74.3 50.9 29.33 50.9 550 136 162 0.98 0.00 0.00 0.000
7:04am 73 0 2 40 98 74.3 51.0 29.33 51.0 550 136 169 1.06 0.00 0.00 0.000
7:05am 73 1 2 40 98 74.3 51.1 29.33 51.1 550 136 176 1.14 0.00 0.00 0.000
7:06am 73 0 1 40 98 74.3 51.2 29.33 51.2 550 136 182 1.22 0.00 0.00 0.000
7:07am 73 0 1 40 98 74.3 51.3 29.33 51.3 550 136 189 1.30 0.00 0.00 0.000
7:08am 73 0 1 40 99 74.3 51.4 29.33 51.4 550 67 196 1.38 0.00 0.00 0.000
7:09am 73 0 1 40 99 74.3 51.5 29.33 51.5 550 67 202 1.45 0.00 0.00 0.000
7:10am 73 0 1 40 99 74.3 51.7 29.33 51.7 549 67 215 1.63 0.00 0.00 0.000
7:11am 73 0 0 40 98 74.3 51.7 29.33 51.7 548 136 213 1.60 0.00 0.00 0.000
7:12am 73 0 0 40 98 74.3 51.8 29.33 51.8 548 136 220 1.67 0.00 0.00 0.000
7:13am 73 0 0 40 98 74.3 51.7 29.33 51.7 548 136 213 1.55 0.00 0.00 0.000
7:14am 75 0 1 40 98 74.3 51.8 29.33 51.8 548 136 219 1.62 0.00 0.00 0.000
7:15am 75 0 1 40 98 74.3 51.8 29.33 51.8 548 136 219 1.59 0.00 0.00 0.000
7:16am 75 0 0 40 98 74.3 51.9 29.33 51.9 548 136 226 1.67 0.00 0.00 0.000
7:17am 75 0 0 40 98 74.3 51.9 29.33 51.9 548 136 226 1.64 0.00 0.00 0.000
7:18am 75 1 2 40 98 74.3 52.0 29.33 52.0 548 136 232 1.71 0.00 0.00 0.000
7:19am 75 2 2 40 98 74.3 52.0 29.33 52.0 547 136 231 1.68 0.00 0.00 0.000
7:20am 75 0 2 40 98 74.3 52.0 29.33 52.0 547 136 231 1.66 0.00 0.00 0.000
7:21am 75 0 1 40 98 74.3 52.1 29.33 52.1 547 136 238 1.73 0.00 0.00 0.000
7:22am 75 0 1 40 98 74.3 52.3 29.33 52.3 547 136 251 1.89 0.00 0.00 0.000
7:23am 75 0 1 40 99 74.3 52.4 29.33 52.4 548 68 259 1.96 0.00 0.00 0.000
7:24am 75 0 1 40 99 74.3 52.6 29.33 52.6 548 68 273 2.13 0.00 0.00 0.000
7:25am 75 0 1 40 99 74.3 52.6 29.33 52.6 548 68 273 2.09 0.00 0.00 0.000
7:26am 75 0 0 40 99 74.3 52.7 29.33 52.7 548 68 279 2.16 0.00 0.00 0.000
7:27am 75 0 0 40 98 74.3 52.8 29.33 52.8 546 137 283 2.22 0.00 0.00 0.000
7:28am 75 0 0 40 98 74.3 52.7 29.34 52.7 544 137 274 2.09 0.00 0.00 0.000
7:29am 75 0 0 40 98 74.3 52.7 29.34 52.7 544 137 274 2.05 0.00 0.00 0.000
7:30am 75 0 0 40 98 74.3 52.7 29.34 52.7 543 137 273 2.02 0.00 0.00 0.000
7:31am 75 0 0 40 98 74.3 52.7 29.34 52.7 545 137 276 1.98 0.00 0.00 0.000
7:32am 75 0 0 40 98 74.3 52.7 29.33 52.7 547 137 278 1.95 0.00 0.00 0.000
7:33am 75 0 0 40 98 74.3 52.8 29.33 52.8 547 137 284 2.02 0.00 0.00 0.000
7:34am 75 0 0 40 98 74.3 52.9 29.33 52.9 547 137 291 2.08 0.00 0.00 0.000
7:35am 75 0 0 40 98 74.3 52.9 29.33 52.9 548 137 292 2.05 0.00 0.00 0.000
7:36am 75 0 0 40 98 74.3 53.0 29.33 53.0 549 137 301 2.11 0.00 0.00 0.000
7:37am 75 0 0 40 98 74.3 53.1 29.33 53.1 548 137 307 2.18 0.00 0.00 0.000
7:38am 74 0 2 40 98 74.3 53.2 29.33 53.2 547 137 311 2.24 0.00 0.00 0.000
7:39am 74 0 2 40 98 74.3 53.3 29.33 53.3 547 137 318 2.30 0.00 0.00 0.000
7:40am 74 0 2 40 98 74.3 53.3 29.33 53.3 546 137 317 2.27 0.00 0.00 0.000
7:41am 74 0 0 40 98 74.3 53.4 29.34 53.4 544 137 321 2.33 0.00 0.00 0.000
7:42am 74 0 0 40 98 74.3 53.4 29.34 53.4 542 137 319 2.29 0.00 0.00 0.000
7:43am 74 0 0 40 98 74.3 53.5 29.34 53.5 542 137 325 2.35 0.00 0.00 0.000
7:44am 74 0 0 40 98 74.3 53.5 29.34 53.5 541 137 324 2.31 0.00 0.00 0.000
7:45am 74 0 0 40 98 74.3 53.7 29.34 53.7 541 137 337 2.47 0.00 0.00 0.000
7:46am 74 0 0 40 98 74.3 53.8 29.34 53.8 539 137 342 2.53 0.00 0.00 0.000
7:47am 74 0 0 40 98 74.3 53.9 29.34 53.9 538 137 347 2.58 0.00 0.00 0.000
7:48am 74 0 0 42 98 74.3 54.0 29.34 54.0 537 137 353 2.64 0.00 0.00 0.000
7:49am 74 0 0 40 98 74.3 54.1 29.34 54.1 536 137 358 2.70 0.00 0.00 0.000
7:50am 74 0 0 40 98 74.3 54.2 29.34 54.2 536 137 365 2.75 0.00 0.00 0.000
7:51am 74 0 0 40 98 74.3 54.2 29.34 54.2 536 137 365 2.71 0.00 0.00 0.000
7:52am 74 0 0 40 98 74.3 54.2 29.34 54.2 536 137 365 2.66 0.00 0.00 0.000
7:53am 74 0 0 40 97 74.3 54.4 29.35 54.4 536 208 377 2.81 0.00 0.00 0.000
7:54am 74 0 0 40 97 74.3 54.4 29.35 54.4 536 208 377 2.77 0.00 0.00 0.000
7:55am 74 0 1 40 98 74.3 54.5 29.35 54.5 536 138 384 2.82 0.00 0.00 0.000
7:56am 74 0 1 40 98 74.3 54.7 29.35 54.7 536 138 397 2.97 0.00 0.00 0.000
7:57am 74 1 1 40 98 74.3 54.8 29.35 54.8 536 138 403 3.02 0.00 0.00 0.000
7:58am 74 0 2 40 98 74.3 55.0 29.35 55.0 536 138 417 3.17 0.00 0.00 0.000
7:59am 74 0 2 40 98 74.3 55.1 29.35 55.1 536 138 423 3.22 0.00 0.00 0.000
8:00am 74 0 2 40 98 74.3 55.3 29.35 55.3 534 138 434 3.36 0.00 0.00 0.000
8:01am 74 0 0 40 98 74.3 55.4 29.35 55.4 536 138 443 3.41 0.00 0.00 0.000
8:02am 74 0 0 40 97 74.3 55.6 29.35 55.6 535 209 455 3.55 0.00 0.00 0.000
8:03am 74 0 0 40 97 74.3 55.7 29.35 55.7 535 209 462 3.59 0.00 0.00 0.000
8:04am 74 0 0 40 97 74.3 55.9 29.35 55.9 535 209 475 3.73 0.00 0.00 0.000
8:05am 74 0 0 40 97 74.3 55.9 29.35 55.9 535 209 475 3.67 0.00 0.00 0.000
8:06am 74 0 0 40 96 74.3 56.0 29.35 56.0 535 280 482 3.71 0.00 0.00 0.000
8:07am 74 0 0 42 97 74.3 56.1 29.35 56.1 534 209 487 3.75 0.00 0.00 0.000
8:08am 74 0 0 40 96 74.3 56.2 29.35 56.2 534 280 494 3.78 0.00 0.00 0.000
8:09am 74 0 0 40 96 74.3 56.3 29.35 56.3 533 281 499 3.82 0.00 0.00 0.000
8:10am 75 0 0 40 96 74.3 56.5 29.35 56.5 534 281 514 3.95 0.00 0.00 0.000
8:11am 74 0 0 40 96 74.3 56.6 29.35 56.6 534 281 520 3.99 0.00 0.00 0.000
8:12am 74 0 0 40 96 74.3 56.7 29.35 56.7 536 281 529 4.02 0.00 0.00 0.000
8:13am 75 0 0 40 95 74.3 56.8 29.35 56.8 536 353 536 4.05 0.00 0.00 0.000
8:14am 75 0 0 40 95 74.3 57.0 29.35 57.0 536 354 549 4.18 0.00 0.00 0.000
8:15am 75 0 0 40 95 74.3 57.1 29.35 57.1 536 354 555 4.22 0.00 0.00 0.000
8:16am 75 0 0 40 95 74.3 57.2 29.35 57.2 536 354 562 4.24 0.00 0.00 0.000
8:17am 75 0 0 40 94 74.3 57.3 29.35 57.3 536 427 569 4.27 0.00 0.00 0.000
8:18am 75 0 0 40 94 74.3 57.4 29.35 57.4 536 427 575 4.30 0.00 0.00 0.000
8:19am 74 0 0 40 94 74.3 57.5 29.35 57.5 535 427 581 4.33 0.00 0.00 0.000
8:20am 75 0 0 40 94 74.3 57.5 29.35 57.5 534 427 579 4.26 0.00 0.00 0.000
8:21am 75 0 0 40 94 74.3 57.7 29.35 57.7 533 428 591 4.39 0.00 0.00 0.000
8:22am 75 0 0 40 94 74.3 57.7 29.35 57.7 532 428 590 4.32 0.00 0.00 0.000
8:23am 75 0 0 40 94 74.3 57.8 29.35 57.8 532 428 597 4.34 0.00 0.00 0.000
8:24am 75 0 0 40 94 74.3 57.9 29.35 57.9 532 428 603 4.37 0.00 0.00 0.000
8:25am 75 0 0 40 93 74.3 57.9 29.35 57.9 530 502 601 4.30 0.00 0.00 0.000
8:26am 75 0 0 40 93 74.3 58.0 29.35 58.0 529 502 607 4.33 0.00 0.00 0.000
8:27am 79 1 2 40 93 74.3 58.0 29.35 58.0 528 502 605 4.25 0.00 0.00 0.000
8:28am 79 0 2 40 93 74.3 58.0 29.35 58.0 527 502 604 4.19 0.00 0.00 0.000
8:29am 79 1 2 40 93 74.3 58.1 29.35 58.1 527 502 611 4.21 0.00 0.00 0.000
8:30am 79 2 2 40 93 74.3 58.2 29.36 58.2 526 503 616 4.24 0.00 0.00 0.000
8:31am 79 0 3 40 92 74.3 58.3 29.36 58.3 525 577 622 4.27 0.00 0.00 0.000
8:32am 79 0 3 40 92 74.3 58.4 29.36 58.4 524 578 627 4.30 0.00 0.00 0.000
8:33am 79 0 3 40 92 74.3 58.5 29.36 58.5 524 578 634 4.33 0.00 0.00 0.000
8:34am 79 0 3 40 92 74.5 58.6 29.36 58.6 524 578 639 4.36 0.00 0.00 0.000
8:35am 79 0 3 40 92 74.5 58.7 29.36 58.7 524 578 646 4.38 0.00 0.00 0.000
8:36am 79 0 0 40 92 74.5 58.9 29.36 58.9 524 579 660 4.51 0.00 0.00 0.000
8:37am 79 0 2 40 92 74.5 59.0 29.36 59.0 524 579 665 4.53 0.00 0.00 0.000
8:38am 79 0 2 40 91 74.5 59.2 29.36 59.2 524 655 680 4.66 0.00 0.00 0.000
8:39am 79 2 2 40 91 74.5 59.3 29.36 59.3 524 656 686 4.68 0.00 0.00 0.000
8:40am 79 2 3 40 91 74.5 59.4 29.36 59.4 524 656 692 4.70 0.00 0.00 0.000
8:41am 79 1 2 40 90 74.5 59.5 29.36 59.5 524 733 699 4.72 0.00 0.00 0.000
8:42am 79 0 2 40 90 74.5 59.6 29.36 59.6 525 733 707 4.75 0.00 0.00 0.000
8:43am 79 1 2 40 90 74.5 59.7 29.36 59.7 525 733 714 4.76 0.00 0.00 0.000
8:44am 79 1 3 40 90 74.5 59.8 29.35 59.8 528 733 723 4.79 0.00 0.00 0.000
8:45am 79 2 3 40 89 74.5 59.9 29.35 59.9 528 811 730 4.81 0.00 0.00 0.000
8:46am 79 2 3 40 89 74.5 60.1 29.35 60.1 527 812 742 4.92 0.00 0.00 0.000
8:47am 79 1 3 40 89 74.5 60.2 29.35 60.2 527 812 749 4.94 0.00 0.00 0.000
8:48am 79 0 3 40 89 74.5 60.3 29.35 60.3 528 813 756 4.96 0.00 0.00 0.000
8:49am 79 2 3 40 89 74.5 60.4 29.35 60.4 528 813 763 4.98 0.00 0.00 0.000
8:50am 79 0 3 40 89 74.5 60.5 29.35 60.5 529 813 770 5.00 0.00 0.00 0.000
8:51am 79 1 2 40 88 74.5 60.5 29.35 60.5 529 892 770 4.91 0.00 0.00 0.000
8:52am 79 1 2 40 88 74.5 60.6 29.35 60.6 527 892 775 4.93 0.00 0.00 0.000
8:53am 79 0 2 40 88 74.5 60.8 29.36 60.8 526 893 787 5.04 0.00 0.00 0.000
8:54am 79 0 2 40 88 74.5 60.9 29.36 60.9 525 893 792 5.06 0.00 0.00 0.000
8:55am 79 2 2 40 88 74.5 61.1 29.36 61.1 526 894 806 5.18 0.00 0.00 0.000
8:56am 79 2 3 40 88 74.5 61.1 29.35 61.1 527 894 807 5.09 0.00 0.00 0.000
8:57am 79 0 3 40 87 74.5 61.2 29.35 61.2 530 974 817 5.11 0.00 0.00 0.000
8:58am 79 0 3 40 87 74.5 61.4 29.35 61.4 531 974 831 5.22 0.00 0.00 0.000
8:59am 79 0 3 40 87 74.5 61.5 29.35 61.5 531 975 838 5.23 0.00 0.00 0.000
9:00am 79 0 3 40 87 74.5 61.6 29.35 61.6 530 975 843 5.25 0.00 0.00 0.000
9:01am 79 0 2 40 87 74.5 61.8 29.35 61.8 529 976 855 5.36 0.00 0.00 0.000
9:02am 79 0 2 40 87 74.5 62.0 29.35 62.0 530 977 869 5.47 0.00 0.00 0.000
9:03am 79 0 2 40 86 74.5 62.1 29.35 62.1 528 1058 874 5.47 0.00 0.00 0.000
9:04am 79 0 2 40 86 74.5 62.3 29.35 62.3 528 1059 887 5.58 0.00 0.00 0.000
9:05am 79 0 2 40 87 74.5 62.4 29.35 62.4 529 979 894 5.59 0.00 0.00 0.000
9:06am 79 3 3 40 86 74.5 62.6 29.35 62.6 531 1060 910 5.70 0.00 0.00 0.000
9:07am 79 1 3 40 86 74.5 62.7 29.35 62.7 532 1061 917 5.70 0.00 0.00 0.000
9:08am 79 0 3 40 85 74.5 62.8 29.35 62.8 532 1143 924 5.70 0.00 0.00 0.000
9:09am 79 0 3 40 85 74.5 63.0 29.35 63.0 534 1144 939 5.81 0.00 0.00 0.000
9:10am 79 0 3 40 85 74.5 63.2 29.34 63.2 536 1144 955 5.91 0.00 0.00 0.000
9:11am 79 0 0 40 85 74.5 63.4 29.34 63.4 536 1145 968 6.01 0.00 0.00 0.000
9:12am 79 0 1 40 85 74.5 63.7 29.34 63.7 536 1147 988 6.21 0.00 0.00 0.000
9:13am 208 5 5 40 84 74.5 63.8 29.34 63.8 536 1230 994 6.20 0.00 0.00 0.000
9:14am 207 1 5 40 81 74.5 64.0 29.34 64.0 537 1485 1008 6.30 0.00 0.00 0.000
9:15am 207 2 5 40 82 74.5 64.2 29.34 64.2 537 1401 1021 6.39 0.00 0.00 0.000
9:16am 207 0 2 40 82 74.5 64.4 29.34 64.4 536 1402 1033 6.49 0.00 0.00 0.000
9:17am 207 0 2 40 81 74.5 64.4 29.34 64.4 536 1487 1033 6.38 0.00 0.00 0.000
9:18am 207 0 2 40 82 74.5 64.6 29.35 64.6 536 1403 1045 6.47 0.00 0.00 0.000
9:19am 207 1 3 40 82 74.5 64.7 29.35 64.7 536 1404 1051 6.46 0.00 0.00 0.000
9:20am 207 2 3 40 81 74.5 64.8 29.35 64.8 535 1490 1057 6.46 0.00 0.00 0.000
9:21am 207 0 2 40 81 74.5 64.9 29.35 64.9 535 1491 1063 6.45 0.00 0.00 0.000
9:22am 207 0 2 40 81 74.5 65.0 29.35 65.0 535 1491 1070 6.44 0.00 0.00 0.000
9:23am 207 2 2 40 80 74.5 65.1 29.35 65.1 535 1579 1076 6.43 0.00 0.00 0.000
9:24am 226 2 3 40 79 74.5 65.2 29.35 65.2 533 1667 1080 6.43 0.00 0.00 0.000
9:25am 283 1 3 40 79 74.5 65.4 29.35 65.4 533 1669 1093 6.52 0.00 0.00 0.000
9:26am 283 0 2 40 79 74.5 65.5 29.35 65.5 532 1669 1098 6.51 0.00 0.00 0.000
9:27am 199 1 4 40 77 74.5 65.5 29.35 65.5 530 1848 1096 6.40 0.00 0.00 0.000
9:28am 202 1 4 40 77 74.5 65.7 29.35 65.7 529 1850 1108 6.50 0.00 0.00 0.000
9:29am 202 0 4 40 79 74.5 65.8 29.35 65.8 528 1671 1113 6.48 0.00 0.00 0.000
9:30am 202 0 4 40 78 74.5 65.9 29.35 65.9 528 1761 1120 6.48 0.00 0.00 0.000
9:31am 202 1 2 40 78 74.5 66.0 29.35 66.0 527 1762 1125 6.47 0.00 0.00 0.000
9:32am 202 0 2 40 77 74.5 66.1 29.35 66.1 528 1853 1133 6.46 0.00 0.00 0.000
9:33am 202 0 2 40 77 74.5 66.3 29.35 66.3 529 1854 1147 6.56 0.00 0.00 0.000
9:34am 202 0 2 40 78 74.5 66.4 29.35 66.4 528 1765 1152 6.55 0.00 0.00 0.000
9:35am 202 1 2 40 77 74.7 66.7 29.35 66.7 528 1858 1171 6.73 0.00 0.00 0.000
9:36am 202 2 2 40 76 74.7 66.8 29.35 66.8 529 1950 1179 6.73 0.00 0.00 0.000
9:37am 300 2 3 40 77 74.7 66.9 29.35 66.9 530 1859 1186 6.71 0.00 0.00 0.000
9:38am 229 1 3 40 74 74.7 67.0 29.35 67.0 530 2138 1193 6.70 0.00 0.00 0.000
9:39am 250 1 3 40 74 74.7 67.2 29.35 67.2 530 2139 1206 6.79 0.00 0.00 0.000
9:40am 250 1 3 40 75 74.7 67.3 29.35 67.3 530 2047 1212 6.78 0.00 0.00 0.000
9:41am 247 1 2 40 76 74.7 67.5 29.35 67.5 531 1956 1226 6.86 0.00 0.00 0.000
9:42am 255 2 3 40 75 74.7 67.6 29.35 67.6 531 2049 1233 6.84 0.00 0.00 0.000
9:43am 256 2 3 40 74 74.7 67.6 29.35 67.6 531 2143 1233 6.73 0.00 0.00 0.000
9:44am 189 3 4 40 73 74.7 67.8 29.35 67.8 532 2240 1247 6.82 0.00 0.00 0.000
9:45am 268 1 4 40 74 74.7 67.9 29.35 67.9 532 2146 1253 6.80 0.00 0.00 0.000
9:46am 357 0 3 40 72 74.7 68.0 29.35 68.0 531 2338 1258 6.79 0.00 0.00 0.000
9:47am 357 2 3 40 73 74.7 68.1 29.35 68.1 530 2243 1264 6.78 0.00 0.00 0.000
9:48am 194 2 6 40 73 74.7 68.1 29.35 68.1 529 2243 1262 6.67 0.00 0.00 0.000
9:49am 194 2 6 40 71 74.7 68.1 29.35 68.1 527 2437 1260 6.56 0.00 0.00 0.000
9:50am 194 2 6 40 73 74.7 68.3 29.35 68.3 527 2245 1273 6.65 0.00 0.00 0.000
9:51am 209 1 3 40 71 74.7 68.4 29.35 68.4 527 2440 1279 6.64 0.00 0.00 0.000
9:52am 209 0 3 40 72 74.7 68.5 29.35 68.5 530 2343 1289 6.63 0.00 0.00 0.000
9:53am 209 1 3 40 72 74.7 68.6 29.35 68.6 531 2344 1297 6.61 0.00 0.00 0.000
9:54am 222 1 4 40 71 74.7 68.7 29.35 68.7 531 2443 1303 6.61 0.00 0.00 0.000
9:55am 310 4 6 40 69 74.7 68.8 29.35 68.8 532 2643 1311 6.60 0.00 0.00 0.000
9:56am 354 2 4 41 71 74.7 68.8 29.35 68.8 530 2444 1308 6.49 0.00 0.00 0.000
9:57am 354 0 4 41 72 74.7 68.9 29.35 68.9 530 2347 1315 6.48 0.00 0.00 0.000
9:58am 354 0 4 40 73 74.7 69.0 29.35 69.0 530 2251 1321 6.47 0.00 0.00 0.000
9:59am 224 4 4 40 72 74.7 69.0 29.35 69.0 527 2348 1318 6.36 0.00 0.00 0.000
10:00am 357 4 4 40 69 74.7 69.0 29.35 69.0 529 2646 1320 6.26 0.00 0.00 0.000
10:01am 160 2 4 40 68 74.7 69.1 29.35 69.1 529 2748 1326 6.26 0.00 0.00 0.000
10:02am 209 0 4 40 69 74.7 69.2 29.35 69.2 531 2648 1335 6.25 0.00 0.00 0.000
10:03am 134 5 6 40 68 74.7 69.3 29.35 69.3 531 2751 1342 6.25 0.00 0.00 0.000
10:04am 113 6 7 40 67 74.7 69.4 29.35 69.4 531 2855 1348 6.24 0.00 0.00 0.000
10:05am 193 2 7 42 67 74.7 69.4 29.35 69.4 532 2855 1349 6.14 0.00 0.00 0.000
10:06am 181 3 3 40 68 74.7 69.5 29.35 69.5 531 2753 1354 6.14 0.00 0.00 0.000
10:07am 170 3 5 40 67 74.7 69.6 29.35 69.6 531 2857 1361 6.13 0.00 0.00 0.000
10:08am 258 0 5 40 68 74.7 69.7 29.35 69.7 533 2755 1369 6.13 0.00 0.00 0.000
10:09am 258 1 5 40 67 74.7 69.8 29.35 69.8 532 2860 1375 6.13 0.00 0.00 0.000
10:10am 258 2 5 40 68 74.7 70.0 29.35 70.0 533 2759 1389 6.23 0.00 0.00 0.000
10:11am 258 0 3 40 68 74.7 70.1 29.35 70.1 533 2760 1395 6.22 0.00 0.00 0.000
10:12am 258 1 3 40 68 74.7 70.2 29.35 70.2 533 2761 1401 6.22 0.00 0.00 0.000
10:13am 181 1 3 40 68 74.9 70.4 29.35 70.4 533 2763 1414 6.31 0.00 0.00 0.000
10:14am 266 4 4 40 67 74.7 70.4 29.35 70.4 533 2867 1414 6.21 0.00 0.00 0.000
10:15am 193 2 4 40 66 74.9 70.5 29.35 70.5 533 2973 1421 6.20 0.00 0.00 0.000
10:16am 193 1 2 40 67 74.9 70.6 29.35 70.6 534 2869 1428 6.20 0.00 0.00 0.000
10:17am 95 1 3 40 66 74.7 70.6 29.35 70.6 535 2975 1429 6.10 0.00 0.00 0.000
10:18am 95 1 3 40 66 74.9 70.7 29.35 70.7 535 2976 1436 6.10 0.00 0.00 0.000
10:19am 184 2 5 40 67 74.9 70.8 29.35 70.8 536 2872 1443 6.10 0.00 0.00 0.000
10:20am 189 5 6 40 66 74.9 70.8 29.35 70.8 535 2977 1442 6.00 0.00 0.00 0.000
10:21am 154 3 6 40 65 74.9 70.8 29.35 70.8 536 3084 1443 5.89 0.00 0.00 0.000
10:22am 226 2 6 40 65 74.9 70.9 29.35 70.9 535 3085 1448 5.90 0.00 0.00 0.000
10:23am 235 2 6 40 66 74.9 71.0 29.35 71.0 535 2979 1455 5.89 0.00 0.00 0.000
10:24am 165 3 6 40 66 74.9 71.0 29.35 71.0 535 2979 1455 5.80 0.00 0.00 0.000
10:25am 283 0 6 40 67 74.9 71.0 29.35 71.0 534 2874 1454 5.70 0.00 0.00 0.000
10:26am 282 1 1 40 68 74.9 71.1 29.35 71.1 535 2772 1461 5.71 0.00 0.00 0.000
10:27am 185 5 5 40 68 74.9 71.2 29.35 71.2 536 2773 1469 5.72 0.00 0.00 0.000
10:28am 181 1 6 40 66 74.7 71.1 29.34 71.1 536 2981 1463 5.53 0.00 0.00 0.000
10:29am 181 3 6 40 67 74.7 71.2 29.34 71.2 536 2877 1470 5.52 0.00 0.00 0.000
10:30am 182 0 6 40 67 74.7 71.3 29.34 71.3 536 2878 1476 5.54 0.00 0.00 0.000
10:31am 288 2 4 40 68 74.7 71.5 29.34 71.5 536 2776 1489 5.65 0.00 0.00 0.000
10:32am 276 1 4 40 67 74.7 71.6 29.34 71.6 536 2881 1495 5.65 0.00 0.00 0.000
10:33am 276 0 4 41 68 74.7 71.7 29.35 71.7 536 2778 1500 5.65 0.00 0.00 0.000
10:34am 276 0 4 41 68 74.7 71.8 29.35 71.8 536 2780 1507 5.66 0.00 0.00 0.000
10:35am 276 0 4 41 67 74.7 71.8 29.35 71.8 535 2884 1506 5.57 0.00 0.00 0.000
10:36am 277 0 1 41 67 74.5 71.9 29.35 71.9 535 2885 1512 5.58 0.00 0.00 0.000
10:37am 155 4 4 41 66 74.5 72.0 29.35 72.0 535 2992 1518 5.59 0.00 0.00 0.000
10:38am 286 3 4 40 66 74.5 72.1 29.35 72.1 534 2993 1524 5.59 0.00 0.00 0.000
10:39am 286 0 4 41 66 74.5 72.1 29.35 72.1 533 2993 1522 5.50 0.00 0.00 0.000
10:40am 286 1 4 41 65 74.5 72.2 29.35 72.2 534 3102 1530 5.51 0.00 0.00 0.000
10:41am 46 0 2 41 68 74.5 72.3 29.35 72.3 534 2785 1536 5.52 0.00 0.00 0.000
10:42am 241 2 3 41 66 74.3 72.4 29.35 72.4 534 2997 1543 5.52 0.00 0.00 0.000
10:43am 243 1 3 40 66 74.3 72.6 29.35 72.6 533 2999 1554 5.63 0.00 0.00 0.000
10:44am 14 1 3 40 65 74.3 72.7 29.35 72.7 532 3108 1559 5.64 0.00 0.00 0.000
10:45am 13 1 3 40 65 74.3 72.8 29.35 72.8 531 3109 1565 5.64 0.00 0.00 0.000
10:46am 305 3 3 40 65 74.3 72.8 29.35 72.8 531 3109 1565 5.55 0.00 0.00 0.000
10:47am 310 2 4 40 65 74.3 73.0 29.35 73.0 527 3112 1573 5.66 0.00 0.00 0.000
10:48am 338 2 5 40 65 74.2 73.0 29.35 73.0 529 3112 1575 5.57 0.00 0.00 0.000
10:49am 337 2 5 40 65 74.2 73.0 29.35 73.0 529 3112 1575 5.47 0.00 0.00 0.000
10:50am 201 2 5 40 64 74.2 73.0 29.35 73.0 530 3221 1576 5.38 0.00 0.00 0.000
10:51am 317 0 3 40 65 74.2 73.0 29.35 73.0 530 3112 1576 5.30 0.00 0.00 0.000
10:52am 316 0 3 40 65 74.2 73.0 29.35 73.0 530 3112 1576 5.20 0.00 0.00 0.000
10:53am 243 3 3 40 65 74.2 73.1 29.35 73.1 530 3113 1582 5.22 0.00 0.00 0.000
10:54am 336 3 5 40 63 74.2 73.2 29.35 73.2 527 3334 1585 5.23 0.00 0.00 0.000
10:55am 336 0 5 40 64 74.2 73.3 29.36 73.3 526 3225 1591 5.24 0.00 0.00 0.000
10:56am 201 6 7 40 62 74.2 73.3 29.36 73.3 525 3448 1590 5.15 0.00 0.00 0.000
10:57am 26 3 7 40 63 74.2 73.3 29.36 73.3 524 3336 1588 5.07 0.00 0.00 0.000
10:58am 322 1 7 41 62 74.2 73.2 29.36 73.2 526 3446 1584 4.89 0.00 0.00 0.000
10:59am 334 4 7 40 63 74.2 73.3 29.36 73.3 526 3336 1591 4.91 0.00 0.00 0.000
11:00am 240 3 7 40 62 74.2 73.3 29.35 73.3 527 3448 1592 4.82 0.00 0.00 0.000
11:01am 237 4 5 40 63 74.2 73.3 29.36 73.3 526 3336 1591 4.75 0.00 0.00 0.000
11:02am 300 2 5 40 63 74.2 73.3 29.35 73.3 527 3336 1592 4.67 0.00 0.00 0.000
11:03am 348 1 5 41 62 74.2 73.4 29.36 73.4 526 3449 1597 4.69 0.00 0.00 0.000
11:04am 300 3 5 41 63 74.2 73.5 29.36 73.5 526 3338 1603 4.71 0.00 0.00 0.000
11:05am 271 2 5 40 62 74.2 73.6 29.35 73.6 528 3452 1612 4.73 0.00 0.00 0.000
11:06am 166 2 2 41 62 74.2 73.7 29.35 73.7 529 3453 1619 4.76 0.00 0.00 0.000
11:07am 141 5 5 40 63 74.2 73.8 29.35 73.8 529 3342 1626 4.77 0.00 0.00 0.000
11:08am 300 4 5 41 63 74.2 73.9 29.35 73.9 528 3344 1631 4.79 0.00 0.00 0.000
11:09am 283 3 5 40 61 74.2 73.9 29.36 73.9 526 3570 1629 4.71 0.00 0.00 0.000
11:10am 243 2 5 40 62 74.2 74.0 29.35 74.0 528 3458 1637 4.74 0.00 0.00 0.000
11:11am 326 3 4 40 62 74.2 74.1 29.35 74.1 529 3459 1645 4.76 0.00 0.00 0.000
11:12am 320 0 4 40 62 74.2 74.1 29.35 74.1 527 3459 1642 4.68 0.00 0.00 0.000
11:13am 300 3 4 41 60 74.2 74.2 29.35 74.2 528 3691 1650 4.70 0.00 0.00 0.000
11:14am 207 1 4 41 60 74.2 74.2 29.35 74.2 527 3691 1649 4.62 0.00 0.00 0.000
11:15am 139 1 4 41 60 74.2 74.3 29.35 74.3 527 3692 1655 4.65 0.00 0.00 0.000
11:16am 177 0 4 40 59 74.2 74.3 29.35 74.3 527 3810 1655 4.57 0.00 0.00 0.000
11:17am 242 1 4 40 62 74.2 74.4 29.36 74.4 526 3463 1660 4.59 0.00 0.00 0.000
11:18am 281 4 4 40 60 74.0 74.3 29.36 74.3 526 3692 1654 4.42 0.00 0.00 0.000
11:19am 251 2 5 40 59 74.0 74.3 29.36 74.3 524 3810 1652 4.34 0.00 0.00 0.000
11:20am 108 1 5 40 61 74.0 74.3 29.36 74.3 525 3576 1653 4.27 0.00 0.00 0.000
11:21am 249 2 4 40 61 74.0 74.4 29.36 74.4 525 3578 1659 4.30 0.00 0.00 0.000
11:22am 206 3 5 40 60 74.0 74.4 29.36 74.4 525 3694 1659 4.23 0.00 0.00 0.000
11:23am 272 2 6 40 60 74.0 74.4 29.36 74.4 524 3694 1658 4.16 0.00 0.00 0.000
11:24am 260 2 6 40 59 74.0 74.4 29.36 74.4 524 3811 1658 4.09 0.00 0.00 0.000
11:25am 144 3 6 40 59 73.8 74.4 29.35 74.4 528 3811 1663 4.02 0.00 0.00 0.000
11:26am 179 1 3 40 59 73.8 74.2 29.36 74.2 525 3808 1647 3.76 0.00 0.00 0.000
11:27am 179 1 3 40 60 73.8 74.3 29.36 74.3 525 3692 1653 3.80 0.00 0.00 0.000
11:28am 179 0 3 40 61 73.8 74.4 29.36 74.4 526 3578 1660 3.83 0.00 0.00 0.000
11:29am 179 0 3 40 61 73.8 74.5 29.36 74.5 526 3579 1667 3.87 0.00 0.00 0.000
11:30am 347 0 3 40 61 73.8 74.6 29.35 74.6 527 3581 1674 3.91 0.00 0.00 0.000
11:31am 347 0 0 40 60 73.8 74.7 29.35 74.7 527 3698 1680 3.94 0.00 0.00 0.000
11:32am 347 0 0 41 61 73.6 74.8 29.35 74.8 527 3584 1687 3.97 0.00 0.00 0.000
11:33am 337 4 4 40 60 73.6 74.9 29.36 74.9 525 3701 1691 4.01 0.00 0.00 0.000
11:34am 320 0 5 40 61 73.6 74.9 29.36 74.9 525 3585 1691 3.94 0.00 0.00 0.000
11:35am 206 0 5 40 59 73.6 75.0 29.36 75.0 525 3821 1697 3.97 0.00 0.00 0.000
11:36am 12 2 4 41 60 73.6 75.1 29.36 75.1 525 3704 1703 4.01 0.00 0.00 0.000
11:37am 79 4 6 40 60 73.6 75.1 29.36 75.1 524 3704 1702 3.94 0.00 0.00 0.000
11:38am 79 0 6 40 58 73.6 75.1 29.36 75.1 525 3942 1703 3.88 0.00 0.00 0.000
11:39am 79 2 6 40 60 73.6 75.3 29.36 75.3 525 3708 1716 4.01 0.00 0.00 0.000
11:40am 79 0 6 40 60 73.6 75.3 29.36 75.3 525 3708 1716 3.94 0.00 0.00 0.000
11:41am 11 2 4 41 59 73.6 75.4 29.35 75.4 527 3827 1725 3.98 0.00 0.00 0.000
11:42am 358 1 4 41 58 73.5 75.5 29.35 75.5 527 3949 1731 4.01 0.00 0.00 0.000
11:43am 358 0 4 41 58 73.5 75.5 29.35 75.5 527 3949 1731 3.95 0.00 0.00 0.000
11:44am 204 1 4 40 59 73.5 75.6 29.35 75.6 527 3830 1737 3.98 0.00 0.00 0.000
11:45am 202 0 4 40 61 73.5 75.8 29.35 75.8 528 3599 1751 4.11 0.00 0.00 0.000
11:46am 203 1 2 40 61 73.6 75.9 29.35 75.9 528 3600 1757 4.14 0.00 0.00 0.000
11:47am 184 3 3 40 59 73.5 76.1 29.35 76.1 528 3838 1770 4.27 0.00 0.00 0.000
11:48am 320 0 3 41 59 73.6 76.2 29.35 76.2 529 3840 1777 4.30 0.00 0.00 0.000
11:49am 180 1 4 40 59 73.6 76.2 29.35 76.2 529 3840 1777 4.23 0.00 0.00 0.000
11:50am 131 2 5 40 58 73.6 76.3 29.35 76.3 531 3962 1786 4.26 0.00 0.00 0.000
11:51am 268 2 3 41 57 73.6 76.3 29.35 76.3 530 4084 1785 4.19 0.00 0.00 0.000
11:52am 208 1 4 40 58 73.6 76.3 29.35 76.3 531 3962 1786 4.12 0.00 0.00 0.000
11:53am 246 1 4 40 58 73.6 76.3 29.35 76.3 531 3962 1786 4.05 0.00 0.00 0.000
11:54am 248 1 4 40 57 73.6 76.4 29.35 76.4 531 4086 1792 4.08 0.00 0.00 0.000
11:55am 233 2 4 40 56 73.6 76.4 29.35 76.4 531 4210 1792 4.01 0.00 0.00 0.000
11:56am 197 2 4 40 57 73.6 76.4 29.35 76.4 532 4086 1793 3.95 0.00 0.00 0.000
11:57am 233 4 4 40 56 73.6 76.4 29.35 76.4 534 4210 1795 3.88 0.00 0.00 0.000
11:58am 243 3 5 40 56 73.6 76.4 29.35 76.4 535 4210 1797 3.82 0.00 0.00 0.000
11:59am 274 3 5 40 57 73.6 76.4 29.35 76.4 535 4086 1797 3.75 0.00 0.00 0.000
12:00pm 276 0 5 40 58 73.6 76.3 29.35 76.3 535 3962 1790 3.59 0.00 0.00 0.000
12:01pm 291 1 3 40 58 73.6 76.4 29.34 76.4 536 3963 1799 3.63 0.00 0.00 0.000
12:02pm 214 2 3 40 59 73.6 76.5 29.34 76.5 537 3845 1806 3.67 0.00 0.00 0.000
12:03pm 231 3 3 40 59 73.5 76.6 29.34 76.6 537 3846 1813 3.71 0.00 0.00 0.000
12:04pm 225 5 7 40 56 73.5 76.7 29.34 76.7 537 4215 1819 3.75 0.00 0.00 0.000
12:05pm 145 4 7 41 56 73.5 76.7 29.34 76.7 537 4215 1819 3.69 0.00 0.00 0.000
12:06pm 127 0 4 40 55 73.5 76.6 29.34 76.6 538 4339 1814 3.53 0.00 0.00 0.000
12:07pm 127 1 4 40 56 73.5 76.6 29.34 76.6 538 4213 1814 3.47 0.00 0.00 0.000
12:08pm 91 2 4 40 56 73.5 76.6 29.34 76.6 537 4213 1813 3.41 0.00 0.00 0.000
12:09pm 91 2 4 40 56 73.5 76.5 29.34 76.5 537 4212 1806 3.26 0.00 0.00 0.000
12:10pm 91 2 4 40 58 73.5 76.6 29.34 76.6 537 3967 1813 3.30 0.00 0.00 0.000
12:11pm 231 4 4 40 58 73.3 76.7 29.34 76.7 536 3968 1818 3.35 0.00 0.00 0.000
12:12pm 206 2 4 40 56 73.3 76.7 29.34 76.7 536 4215 1818 3.29 0.00 0.00 0.000
12:13pm 248 1 4 40 55 73.3 76.7 29.34 76.7 536 4341 1818 3.24 0.00 0.00 0.000
12:14pm 249 3 4 40 56 73.3 76.7 29.34 76.7 537 4215 1819 3.18 0.00 0.00 0.000
12:15pm 325 2 5 40 56 73.3 76.7 29.34 76.7 537 4215 1819 3.13 0.00 0.00 0.000
12:16pm 322 2 3 40 56 73.3 76.6 29.34 76.6 537 4213 1813 2.98 0.00 0.00 0.000
12:17pm 290 2 3 40 56 73.3 76.6 29.34 76.6 537 4213 1813 2.93 0.00 0.00 0.000
12:18pm 331 2 3 40 57 73.3 76.7 29.34 76.7 537 4091 1819 2.98 0.00 0.00 0.000
12:19pm 286 3 5 40 56 73.1 76.7 29.34 76.7 538 4215 1820 2.93 0.00 0.00 0.000
12:20pm 257 1 5 40 56 73.1 76.8 29.34 76.8 537 4217 1825 2.98 0.00 0.00 0.000
12:21pm 96 1 4 40 55 73.1 76.7 29.34 76.7 538 4341 1820 2.83 0.00 0.00 0.000
12:22pm 88 3 4 40 56 73.1 76.8 29.34 76.8 537 4217 1825 2.88 0.00 0.00 0.000
12:23pm 96 2 4 40 56 73.1 76.8 29.34 76.8 537 4217 1825 2.84 0.00 0.00 0.000
12:24pm 95 2 4 41 56 73.1 76.9 29.34 76.9 537 4218 1831 2.89 0.00 0.00 0.000
12:25pm 96 2 4 40 56 73.1 76.9 29.34 76.9 537 4218 1831 2.84 0.00 0.00 0.000
12:26pm 96 0 2 40 55 73.1 76.9 29.34 76.9 538 4345 1833 2.79 0.00 0.00 0.000
12:27pm 96 1 2 40 57 73.1 77.0 29.34 77.0 537 4096 1838 2.85 0.00 0.00 0.000
12:28pm 96 1 2 40 56 73.1 77.2 29.34 77.2 537 4224 1850 3.00 0.00 0.00 0.000
12:29pm 96 2 3 40 57 73.3 77.4 29.35 77.4 536 4102 1861 3.14 0.00 0.00 0.000
12:30pm 96 2 3 40 54 73.3 77.6 29.34 77.6 536 4486 1874 3.29 0.00 0.00 0.000
12:31pm 96 2 4 40 53 73.3 77.7 29.34 77.7 536 4619 1881 3.34 0.00 0.00 0.000
12:32pm 239 3 4 40 53 73.3 77.8 29.34 77.8 536 4621 1887 3.38 0.00 0.00 0.000
12:33pm 220 0 4 40 54 73.3 77.9 29.34 77.9 536 4492 1893 3.42 0.00 0.00 0.000
12:34pm 241 3 5 42 53 73.3 77.9 29.34 77.9 536 4623 1893 3.37 0.00 0.00 0.000
12:35pm 191 3 5 40 52 73.3 78.0 29.35 78.0 536 4758 1898 3.41 0.00 0.00 0.000
12:36pm 180 2 5 40 52 73.3 78.0 29.34 78.0 537 4758 1901 3.35 0.00 0.00 0.000
12:37pm 240 5 6 40 54 73.3 78.0 29.35 78.0 535 4493 1897 3.30 0.00 0.00 0.000
12:38pm 256 3 7 40 54 73.3 78.0 29.35 78.0 534 4493 1896 3.25 0.00 0.00 0.000
12:39pm 191 4 7 40 54 73.3 78.2 29.35 78.2 531 4497 1905 3.39 0.00 0.00 0.000
12:40pm 195 9 9 40 55 73.3 78.1 29.35 78.1 528 4366 1896 3.23 0.00 0.00 0.000
12:41pm 310 3 9 40 55 73.3 78.1 29.35 78.1 530 4366 1898 3.18 0.00 0.00 0.000
12:42pm 310 3 9 40 54 73.3 78.0 29.35 78.0 530 4493 1891 3.03 0.00 0.00 0.000
12:43pm 216 2 9 40 54 73.3 78.1 29.35 78.1 529 4495 1897 3.08 0.00 0.00 0.000
12:44pm 291 3 9 40 54 73.3 78.1 29.35 78.1 531 4495 1899 3.03 0.00 0.00 0.000
12:45pm 347 1 9 40 53 73.3 78.1 29.35 78.1 532 4626 1900 2.98 0.00 0.00 0.000
12:46pm 333 2 3 40 52 73.3 78.1 29.35 78.1 533 4760 1901 2.93 0.00 0.00 0.000
12:47pm 263 2 3 40 53 73.3 78.2 29.35 78.2 531 4628 1905 2.98 0.00 0.00 0.000
12:48pm 170 1 3 40 52 73.3 78.2 29.35 78.2 529 4762 1903 2.93 0.00 0.00 0.000
12:49pm 193 2 3 40 52 73.3 78.2 29.35 78.2 528 4762 1902 2.88 0.00 0.00 0.000
12:50pm 253 1 3 40 53 73.3 78.3 29.35 78.3 527 4630 1907 2.93 0.00 0.00 0.000
12:51pm 54 1 3 40 53 73.1 78.4 29.36 78.4 526 4632 1912 2.99 0.00 0.00 0.000
12:52pm 82 4 5 40 54 73.1 78.6 29.36 78.6 526 4504 1925 3.13 0.00 0.00 0.000
12:53pm 147 2 7 40 52 73.1 78.7 29.36 78.7 526 4771 1931 3.18 0.00 0.00 0.000
12:54pm 226 7 7 40 52 73.1 78.9 29.35 78.9 527 4775 1944 3.33 0.00 0.00 0.000
12:55pm 228 5 7 40 51 73.1 78.9 29.36 78.9 526 4911 1943 3.27 0.00 0.00 0.000
12:56pm 300 1 5 40 51 73.1 78.9 29.36 78.9 525 4911 1942 3.22 0.00 0.00 0.000
12:57pm 260 1 5 40 53 73.1 79.0 29.36 79.0 526 4643 1950 3.26 0.00 0.00 0.000
12:58pm 260 0 5 40 53 73.1 79.0 29.36 79.0 526 4643 1950 3.21 0.00 0.00 0.000
12:59pm 260 1 5 40 53 73.0 79.1 29.35 79.1 528 4645 1958 3.25 0.00 0.00 0.000
1:00pm 358 2 5 40 53 73.0 79.2 29.35 79.2 529 4647 1966 3.30 0.00 0.00 0.000
1:01pm 358 1 3 40 51 73.0 79.3 29.35 79.3 529 4919 1972 3.34 0.00 0.00 0.000
1:02pm 358 0 3 40 53 73.0 79.4 29.35 79.4 532 4651 1981 3.39 0.00 0.00 0.000
1:03pm 156 2 3 40 51 73.0 79.5 29.35 79.5 532 4923 1988 3.43 0.00 0.00 0.000
1:04pm 310 3 4 40 50 73.0 79.6 29.35 79.6 533 5064 1995 3.47 0.00 0.00 0.000
1:05pm 250 3 4 40 53 73.0 79.7 29.35 79.7 534 4657 2002 3.51 0.00 0.00 0.000
1:06pm 96 1 3 41 51 73.0 79.8 29.35 79.8 534 4929 2009 3.55 0.00 0.00 0.000
1:07pm 197 0 6 40 53 73.0 79.8 29.35 79.8 534 4659 2009 3.50 0.00 0.00 0.000
1:08pm 169 7 7 40 50 73.0 79.7 29.35 79.7 532 5066 2000 3.34 0.00 0.00 0.000
1:09pm 91 3 7 40 51 73.0 79.5 29.35 79.5 531 4923 1987 3.08 0.00 0.00 0.000
1:10pm 324 2 7 40 51 73.0 79.3 29.35 79.3 531 4919 1974 2.83 0.00 0.00 0.000
1:11pm 348 3 3 40 51 73.0 79.1 29.35 79.1 531 4915 1962 2.59 0.00 0.00 0.000
1:12pm 348 2 4 40 51 73.0 78.9 29.35 78.9 531 4911 1949 2.35 0.00 0.00 0.000
1:13pm 348 1 4 40 52 73.0 78.8 29.35 78.8 531 4773 1943 2.21 0.00 0.00 0.000
1:14pm 348 1 4 40 53 73.0 78.7 29.35 78.7 530 4638 1935 2.07 0.00 0.00 0.000
1:15pm 214 5 5 40 54 73.0 78.7 29.35 78.7 528 4506 1933 2.04 0.00 0.00 0.000
1:16pm 183 2 7 40 52 73.0 78.6 29.35 78.6 530 4769 1929 1.91 0.00 0.00 0.000
1:17pm 235 4 7 40 52 73.0 78.4 29.35 78.4 529 4766 1915 1.68 0.00 0.00 0.000
1:18pm 266 0 7 40 52 73.0 78.4 29.35 78.4 527 4766 1913 1.65 0.00 0.00 0.000
1:19pm 266 0 7 40 52 73.0 78.3 29.35 78.3 528 4764 1908 1.52 0.00 0.00 0.000
1:20pm 81 3 7 40 52 73.0 78.4 29.35 78.4 529 4766 1915 1.60 0.00 0.00 0.000
1:21pm 84 2 3 40 52 73.0 78.2 29.35 78.2 529 4762 1903 1.37 0.00 0.00 0.000
1:22pm 84 3 3 40 52 73.0 78.2 29.35 78.2 531 4762 1905 1.35 0.00 0.00 0.000
1:23pm 106 3 5 40 53 73.0 78.1 29.35 78.1 530 4626 1898 1.23 0.00 0.00 0.000
1:24pm 106 0 5 40 53 73.0 77.9 29.35 77.9 531 4623 1886 1.01 0.00 0.00 0.000
1:25pm 106 3 5 40 53 73.1 77.9 29.35 77.9 531 4623 1886 0.99 0.00 0.00 0.000
1:26pm 184 1 5 40 52 73.1 77.8 29.35 77.8 531 4754 1880 0.88 0.00 0.00 0.000
1:27pm 184 1 5 40 55 73.1 77.6 29.35 77.6 531 4357 1868 0.67 0.00 0.00 0.000
1:28pm 184 1 5 40 55 73.1 77.5 29.35 77.5 532 4356 1862 0.56 0.00 0.00 0.000
1:29pm 184 1 5 40 54 73.0 77.4 29.35 77.4 531 4482 1855 0.45 0.00 0.00 0.000
1:30pm 184 1 5 41 56 73.0 77.4 29.35 77.4 530 4227 1854 0.44 0.00 0.00 0.000
1:31pm 184 2 2 40 57 73.0 77.3 29.35 77.3 532 4101 1850 0.33 0.00 0.00 0.000
1:32pm 174 3 3 40 56 73.0 77.3 29.35 77.3 535 4225 1853 0.33 0.00 0.00 0.000
1:33pm 351 2 5 40 55 73.0 77.4 29.35 77.4 536 4354 1861 0.42 0.00 0.00 0.000
1:34pm 241 1 5 40 53 73.0 77.5 29.35 77.5 536 4615 1867 0.52 0.00 0.00 0.000
1:35pm 349 1 5 40 54 73.0 77.5 29.34 77.5 536 4484 1868 0.51 0.00 0.00 0.000
1:36pm 349 0 2 40 55 73.0 77.6 29.35 77.6 536 4357 1873 0.60 0.00 0.00 0.000
1:37pm 349 0 2 40 54 73.0 77.7 29.34 77.7 536 4488 1881 0.69 0.00 0.00 0.000
1:38pm 185 2 4 40 52 73.0 77.8 29.34 77.8 536 4754 1887 0.77 0.00 0.00 0.000
1:39pm 326 2 4 40 55 72.8 77.8 29.35 77.8 536 4361 1886 0.76 0.00 0.00 0.000
1:40pm 77 3 4 40 53 72.8 77.9 29.34 77.9 536 4623 1893 0.85 0.00 0.00 0.000
1:41pm 345 1 4 40 54 72.8 78.0 29.34 78.0 537 4493 1901 0.93 0.00 0.00 0.000
1:42pm 185 2 4 40 55 72.8 78.2 29.34 78.2 536 4368 1912 1.11 0.00 0.00 0.000
1:43pm 220 2 4 40 52 72.8 78.2 29.34 78.2 536 4762 1912 1.10 0.00 0.00 0.000
1:44pm 220 2 4 40 53 72.8 78.3 29.34 78.3 536 4630 1918 1.18 0.00 0.00 0.000
1:45pm 220 3 4 40 53 72.8 78.3 29.34 78.3 536 4630 1918 1.16 0.00 0.00 0.000
1:46pm 320 1 3 40 53 72.8 78.3 29.34 78.3 536 4630 1918 1.14 0.00 0.00 0.000
1:47pm 332 2 3 40 54 72.8 78.4 29.35 78.4 535 4501 1922 1.22 0.00 0.00 0.000
1:48pm 322 2 3 40 54 72.8 78.5 29.35 78.5 536 4503 1930 1.30 0.00 0.00 0.000
1:49pm 101 1 3 40 53 72.8 78.7 29.34 78.7 536 4638 1943 1.48 0.00 0.00 0.000
1:50pm 159 2 3 40 53 72.8 78.8 29.34 78.8 538 4640 1952 1.55 0.00 0.00 0.000
1:51pm 237 3 3 40 54 72.8 79.0 29.34 79.0 538 4512 1964 1.72 0.00 0.00 0.000
1:52pm 237 4 4 40 51 72.8 79.1 29.34 79.1 539 4915 1972 1.79 0.00 0.00 0.000
1:53pm 328 2 5 40 51 72.8 79.2 29.34 79.2 539 4917 1978 1.86 0.00 0.00 0.000
1:54pm 220 3 5 40 51 72.8 79.2 29.34 79.2 539 4917 1978 1.83 0.00 0.00 0.000
1:55pm 190 1 5 40 52 72.8 79.2 29.34 79.2 539 4781 1978 1.80 0.00 0.00 0.000
1:56pm 195 0 2 40 52 72.8 79.3 29.34 79.3 539 4783 1984 1.87 0.00 0.00 0.000
1:57pm 195 2 2 40 52 72.8 79.3 29.34 79.3 539 4783 1984 1.84 0.00 0.00 0.000
1:58pm 255 2 3 40 51 72.8 79.5 29.34 79.5 539 4923 1997 2.01 0.00 0.00 0.000
1:59pm 224 3 5 40 52 72.8 79.6 29.34 79.6 539 4789 2003 2.07 0.00 0.00 0.000
2:00pm 64 7 7 40 52 72.8 79.7 29.34 79.7 539 4791 2009 2.14 0.00 0.00 0.000
2:01pm 284 5 8 40 50 72.8 79.8 29.34 79.8 538 5068 2014 2.20 0.00 0.00 0.000
2:02pm 277 1 8 40 49 72.8 79.8 29.34 79.8 538 5210 2014 2.16 0.00 0.00 0.000
2:03pm 237 2 8 40 48 72.8 79.9 29.34 79.9 538 5356 2021 2.23 0.00 0.00 0.000
2:04pm 205 3 8 40 49 73.0 79.8 29.34 79.8 538 5210 2014 2.09 0.00 0.00 0.000
2:05pm 310 1 8 40 48 73.0 79.8 29.34 79.8 538 5354 2014 2.06 0.00 0.00 0.000
2:06pm 251 0 2 40 48 73.0 79.9 29.34 79.9 539 5356 2022 2.12 0.00 0.00 0.000
2:07pm 251 1 2 40 49 72.8 79.9 29.34 79.9 538 5212 2021 2.09 0.00 0.00 0.000
2:08pm 278 1 3 40 50 72.8 80.1 29.34 80.1 538 5074 2033 2.25 0.00 0.00 0.000
2:09pm 315 2 3 40 49 72.8 80.2 29.34 80.2 539 5218 2040 2.32 0.00 0.00 0.000
2:10pm 276 2 4 40 47 72.8 80.2 29.34 80.2 539 5509 2040 2.28 0.00 0.00 0.000
2:11pm 300 2 5 40 48 72.8 80.3 29.34 80.3 539 5364 2047 2.34 0.00 0.00 0.000
2:12pm 310 2 5 40 48 72.8 80.2 29.34 80.2 539 5362 2040 2.20 0.00 0.00 0.000
2:13pm 114 3 5 40 48 72.8 80.2 29.34 80.2 539 5362 2040 2.17 0.00 0.00 0.000
2:14pm 95 1 5 40 48 72.8 80.0 29.34 80.0 539 5358 2028 1.93 0.00 0.00 0.000
2:15pm 254 2 5 40 48 72.8 80.0 29.34 80.0 539 5358 2028 1.90 0.00 0.00 0.000
2:16pm 322 3 5 40 48 72.8 79.8 29.34 79.8 539 5354 2015 1.67 0.00 0.00 0.000
2:17pm 310 2 5 40 48 72.8 79.7 29.34 79.7 539 5351 2009 1.54 0.00 0.00 0.000
2:18pm 11 1 5 40 48 72.6 79.6 29.34 79.6 539 5349 2003 1.42 0.00 0.00 0.000
2:19pm 6 1 5 40 49 72.6 79.5 29.34 79.5 539 5203 1997 1.30 0.00 0.00 0.000
2:20pm 6 1 5 40 50 72.6 79.4 29.34 79.4 540 5060 1992 1.17 0.00 0.00 0.000
2:21pm 6 1 2 40 50 72.6 79.4 29.34 79.4 541 5060 1993 1.15 0.00 0.00 0.000
2:22pm 36 1 2 40 49 72.6 79.3 29.34 79.3 541 5199 1986 1.04 0.00 0.00 0.000
2:23pm 264 3 5 40 51 72.6 79.3 29.34 79.3 541 4919 1986 1.02 0.00 0.00 0.000
2:24pm 145 4 5 40 50 72.6 79.2 29.34 79.2 540 5056 1979 0.90 0.00 0.00 0.000
2:25pm 153 1 5 40 50 72.6 79.0 29.34 79.0 541 5052 1968 0.69 0.00 0.00 0.000
2:26pm 150 1 2 40 50 72.6 78.9 29.34 78.9 542 5050 1963 0.58 0.00 0.00 0.000
2:27pm 172 1 2 40 50 72.6 78.9 29.34 78.9 541 5050 1961 0.57 0.00 0.00 0.000
2:28pm 172 1 2 40 52 72.6 78.7 29.34 78.7 540 4771 1948 0.36 0.00 0.00 0.000
2:29pm 147 2 3 40 51 72.6 78.7 29.34 78.7 541 4907 1949 0.36 0.00 0.00 0.000
2:30pm 101 2 3 40 52 72.6 78.6 29.34 78.6 541 4769 1943 0.25 0.00 0.00 0.000
2:31pm 101 1 2 40 50 72.6 78.5 29.34 78.5 541 5042 1936 0.15 0.00 0.00 0.000
2:32pm 226 3 4 40 50 72.6 78.5 29.34 78.5 541 5042 1936 0.15 0.00 0.00 0.000
2:33pm 226 0 4 40 53 72.6 78.6 29.34 78.6 542 4636 1944 0.24 0.00 0.00 0.000
2:34pm 227 1 4 40 53 72.6 78.7 29.34 78.7 541 4638 1949 0.34 0.00 0.00 0.000
2:35pm 227 0 4 40 50 72.6 78.9 29.34 78.9 541 5050 1961 0.53 0.00 0.00 0.000
2:36pm 226 1 3 40 52 72.6 79.0 29.34 79.0 541 4777 1968 0.62 0.00 0.00 0.000
2:37pm 222 2 4 40 49 72.6 79.2 29.34 79.2 541 5197 1980 0.81 0.00 0.00 0.000
2:38pm 220 0 4 40 48 72.6 79.2 29.34 79.2 542 5341 1981 0.80 0.00 0.00 0.000
2:39pm 300 3 4 40 48 72.6 79.3 29.34 79.3 542 5343 1988 0.88 0.00 0.00 0.000
2:40pm 332 3 4 40 50 72.6 79.2 29.34 79.2 543 5056 1982 0.77 0.00 0.00 0.000
2:41pm 329 1 3 40 50 72.6 79.3 29.34 79.3 542 5058 1988 0.86 0.00 0.00 0.000
2:42pm 189 1 4 40 49 72.6 79.3 29.34 79.3 543 5199 1989 0.84 0.00 0.00 0.000
2:43pm 283 0 4 40 50 72.6 79.3 29.34 79.3 542 5058 1988 0.83 0.00 0.00 0.000
2:44pm 174 1 4 40 50 72.6 79.4 29.34 79.4 545 5060 1997 0.91 0.00 0.00 0.000
2:45pm 176 0 4 40 51 72.6 79.5 29.34 79.5 545 4923 2003 1.00 0.00 0.00 0.000
2:46pm 275 1 2 41 50 72.6 79.8 29.34 79.8 545 5068 2022 1.28 0.00 0.00 0.000
2:47pm 345 1 3 40 50 72.6 80.0 29.34 80.0 545 5072 2035 1.46 0.00 0.00 0.000
2:48pm 345 3 3 40 50 72.6 80.1 29.34 80.1 545 5074 2041 1.53 0.00 0.00 0.000
2:49pm 350 0 4 40 48 72.6 80.2 29.33 80.2 546 5362 2048 1.60 0.00 0.00 0.000
2:50pm 350 0 4 40 48 72.6 80.3 29.33 80.3 546 5364 2055 1.68 0.00 0.00 0.000
2:51pm 350 2 2 42 48 72.6 80.3 29.33 80.3 546 5364 2055 1.65 0.00 0.00 0.000
2:52pm 350 1 3 40 50 72.6 80.5 29.33 80.5 547 5083 2068 1.82 0.00 0.00 0.000
2:53pm 351 2 3 40 50 72.6 80.7 29.33 80.7 548 5087 2083 1.99 0.00 0.00 0.000
2:54pm 350 0 3 40 49 72.6 80.8 29.33 80.8 549 5231 2090 2.05 0.00 0.00 0.000
2:55pm 350 2 3 40 48 72.6 80.9 29.33 80.9 549 5377 2096 2.12 0.00 0.00 0.000
2:56pm 350 1 2 40 48 72.4 81.0 29.33 81.0 550 5380 2104 2.18 0.00 0.00 0.000
2:57pm 117 4 4 40 50 72.4 81.1 29.33 81.1 550 5095 2110 2.24 0.00 0.00 0.000
2:58pm 123 2 4 42 49 72.4 81.2 29.33 81.2 549 5239 2115 2.31 0.00 0.00 0.000
2:59pm 144 2 6 40 48 72.4 81.3 29.33 81.3 550 5386 2122 2.37 0.00 0.00 0.000
3:00pm 255 4 6 41 48 72.4 81.2 29.33 81.2 549 5384 2115 2.23 0.00 0.00 0.000
3:01pm 231 3 4 41 48 72.4 81.1 29.33 81.1 547 5382 2105 2.09 0.00 0.00 0.000
3:02pm 103 1 4 40 48 72.4 81.0 29.33 81.0 546 5380 2098 1.96 0.00 0.00 0.000
3:03pm 101 2 4 40 47 72.3 80.9 29.33 80.9 548 5525 2094 1.83 0.00 0.00 0.000
3:04pm 89 3 7 40 47 72.3 80.8 29.33 80.8 547 5522 2087 1.70 0.00 0.00 0.000
3:05pm 99 1 7 40 47 72.3 80.7 29.33 80.7 547 5520 2081 1.57 0.00 0.00 0.000
3:06pm 199 3 6 40 51 72.3 80.7 29.34 80.7 543 4947 2076 1.55 0.00 0.00 0.000
3:07pm 229 4 6 40 52 72.3 80.5 29.34 80.5 544 4806 2065 1.32 0.00 0.00 0.000
3:08pm 176 4 6 40 52 72.3 80.3 29.34 80.3 544 4803 2052 1.10 0.00 0.00 0.000
3:09pm 89 2 6 40 53 72.3 80.0 29.34 80.0 545 4662 2035 0.79 0.00 0.00 0.000
3:10pm 89 1 6 40 53 72.3 79.9 29.33 79.9 546 4660 2030 0.67 0.00 0.00 0.000
|
Data provided from: Mark Hofmann's Bel Air, MD Weather Station |